| time (UTC) | temp C | wind direction | speed KPH | gust KPH | rain 1hr cm | rain 24hr cm | rain mn cm | humidity % | barometer mb |
| 20260506155621 | 23 | 225 | 14.5 | 29.0 | 0.00 | 0.00 | 0.00 | 44 | 999.5 |
| 20260506155103 | 23 | 224 | 14.5 | 29.0 | 0.00 | 0.00 | 0.00 | 44 | 999.5 |
| 20260506155003 | 23 | 221 | 16.1 | 29.0 | 0.00 | 0.00 | 0.00 | 44 | 999.8 |
| 20260506154903 | 23 | 218 | 16.1 | 29.0 | 0.00 | 0.00 | 0.00 | 43 | 999.7 |
| 20260506154803 | 23 | 217 | 16.1 | 29.0 | 0.00 | 0.00 | 0.00 | 43 | 999.7 |
| 20260506154703 | 24 | 217 | 16.1 | 29.0 | 0.00 | 0.00 | 0.00 | 43 | 999.7 |
| 20260506154603 | 24 | 214 | 16.1 | 29.0 | 0.00 | 0.00 | 0.00 | 43 | 999.7 |
| 20260506154503 | 24 | 213 | 17.7 | 29.0 | 0.00 | 0.00 | 0.00 | 44 | 999.9 |
| 20260506154404 | 24 | 214 | 16.1 | 29.0 | 0.00 | 0.00 | 0.00 | 44 | 999.7 |
| 20260506154303 | 24 | 212 | 14.5 | 27.4 | 0.00 | 0.00 | 0.00 | 43 | 999.8 |
| 20260506154218 | 24 | 210 | 14.5 | 27.4 | 0.00 | 0.00 | 0.00 | 43 | 999.8 |
| 20260506154203 | 24 | 210 | 14.5 | 27.4 | 0.00 | 0.00 | 0.00 | 43 | 999.8 |
| 20260506154103 | 24 | 208 | 12.9 | 27.4 | 0.00 | 0.00 | 0.00 | 42 | 999.8 |
| 20260506153903 | 24 | 209 | 11.3 | 27.4 | 0.00 | 0.00 | 0.00 | 43 | 999.7 |
| 20260506153803 | 24 | 209 | 11.3 | 27.4 | 0.00 | 0.00 | 0.00 | 43 | 999.7 |
| 20260506153703 | 24 | 212 | 11.3 | 27.4 | 0.00 | 0.00 | 0.00 | 45 | 999.8 |
| 20260506153503 | 23 | 217 | 9.7 | 25.7 | 0.00 | 0.00 | 0.00 | 46 | 999.9 |
| 20260506153403 | 23 | 216 | 9.7 | 25.7 | 0.00 | 0.00 | 0.00 | 47 | 999.8 |
| 20260506153317 | 23 | 217 | 11.3 | 25.7 | 0.00 | 0.00 | 0.00 | 45 | 999.8 |
| 20260506153303 | 23 | 217 | 11.3 | 25.7 | 0.00 | 0.00 | 0.00 | 45 | 999.8 |
| 20260506153203 | 23 | 219 | 11.3 | 25.7 | 0.00 | 0.00 | 0.00 | 43 | 999.5 |
| 20260506153003 | 23 | 221 | 12.9 | 25.7 | 0.00 | 0.00 | 0.00 | 45 | 999.7 |
| 20260506152903 | 23 | 221 | 12.9 | 25.7 | 0.00 | 0.00 | 0.00 | 44 | 999.7 |
| 20260506152803 | 23 | 220 | 12.9 | 25.7 | 0.00 | 0.00 | 0.00 | 45 | 999.7 |
| 20260506152703 | 23 | 220 | 12.9 | 25.7 | 0.00 | 0.00 | 0.00 | 45 | 999.7 |
| 20260506152603 | 23 | 219 | 12.9 | 25.7 | 0.00 | 0.00 | 0.00 | 44 | 999.7 |
| 20260506152503 | 23 | 219 | 12.9 | 27.4 | 0.00 | 0.00 | 0.00 | 44 | 999.8 |
| 20260506152403 | 23 | 217 | 12.9 | 27.4 | 0.00 | 0.00 | 0.00 | 44 | 999.7 |
| 20260506152305 | 23 | 217 | 12.9 | 29.0 | 0.00 | 0.00 | 0.00 | 44 | 999.5 |
| 20260506152203 | 23 | 218 | 12.9 | 29.0 | 0.00 | 0.00 | 0.00 | 44 | 999.4 |
| 20260506152103 | 23 | 219 | 12.9 | 29.0 | 0.00 | 0.00 | 0.00 | 44 | 999.7 |
| 20260506152003 | 23 | 222 | 14.5 | 29.0 | 0.00 | 0.00 | 0.00 | 43 | 999.7 |
| 20260506151903 | 23 | 225 | 16.1 | 29.0 | 0.00 | 0.00 | 0.00 | 44 | 999.7 |
| 20260506151803 | 23 | 228 | 16.1 | 29.0 | 0.00 | 0.00 | 0.00 | 43 | 999.7 |
| 20260506151703 | 24 | 229 | 16.1 | 29.0 | 0.00 | 0.00 | 0.00 | 43 | 999.7 |
| 20260506151603 | 24 | 229 | 16.1 | 29.0 | 0.00 | 0.00 | 0.00 | 42 | 999.5 |
| 20260506151503 | 24 | 229 | 16.1 | 29.0 | 0.00 | 0.00 | 0.00 | 41 | 999.5 |
| 20260506151403 | 24 | 231 | 16.1 | 29.0 | 0.00 | 0.00 | 0.00 | 42 | 999.3 |
| 20260506151303 | 24 | 231 | 16.1 | 29.0 | 0.00 | 0.00 | 0.00 | 41 | 999.7 |
| 20260506151203 | 24 | 230 | 16.1 | 29.0 | 0.00 | 0.03 | 0.00 | 41 | 999.5 |
| 20260506151103 | 25 | 229 | 14.5 | 27.4 | 0.00 | 0.08 | 0.00 | 42 | 999.5 |
| 20260506151003 | 25 | 226 | 14.5 | 27.4 | 0.00 | 0.15 | 0.00 | 42 | 999.5 |
| 20260506150903 | 24 | 225 | 14.5 | 25.7 | 0.00 | 0.28 | 0.00 | 42 | 999.7 |
| 20260506150803 | 24 | 223 | 14.5 | 25.7 | 0.00 | 0.43 | 0.00 | 42 | 999.4 |
| 20260506150716 | 24 | 222 | 14.5 | 27.4 | 0.00 | 0.53 | 0.00 | 43 | 999.5 |
| 20260506150703 | 24 | 222 | 14.5 | 27.4 | 0.00 | 0.53 | 0.00 | 43 | 999.5 |
| 20260506150603 | 24 | 223 | 14.5 | 27.4 | 0.00 | 0.53 | 0.00 | 42 | 999.7 |
| 20260506150304 | 25 | 221 | 16.1 | 32.2 | 0.00 | 0.53 | 0.00 | 41 | 999.4 |
| 20260506150217 | 25 | 221 | 16.1 | 32.2 | 0.00 | 0.53 | 0.00 | 43 | 999.4 |
| 20260506150203 | 25 | 221 | 16.1 | 32.2 | 0.00 | 0.53 | 0.00 | 43 | 999.4 |
| 20260506150103 | 25 | 221 | 16.1 | 32.2 | 0.00 | 0.53 | 0.00 | 41 | 999.4 |
| 20260506145904 | 24 | 222 | 17.7 | 32.2 | 0.00 | 0.53 | 0.00 | 41 | 999.4 |
| 20260506145803 | 24 | 220 | 17.7 | 32.2 | 0.00 | 0.53 | 0.00 | 43 | 999.4 |
| 20260506145718 | 24 | 219 | 17.7 | 32.2 | 0.00 | 0.53 | 0.00 | 41 | 999.3 |
| 20260506145703 | 24 | 219 | 17.7 | 32.2 | 0.00 | 0.53 | 0.00 | 41 | 999.3 |
| 20260506145617 | 24 | 217 | 17.7 | 32.2 | 0.00 | 0.53 | 0.00 | 40 | 999.3 |
| 20260506145603 | 24 | 217 | 17.7 | 32.2 | 0.00 | 0.53 | 0.00 | 40 | 999.3 |
| 20260506145520 | 24 | 216 | 17.7 | 32.2 | 0.00 | 0.53 | 0.00 | 41 | 999.5 |
| 20260506145103 | 23 | 213 | 16.1 | 32.2 | 0.00 | 0.53 | 0.00 | 41 | 999.4 |
| 20260506145003 | 24 | 210 | 16.1 | 32.2 | 0.00 | 0.53 | 0.00 | 41 | 999.5 |
| 20260506144903 | 24 | 208 | 14.5 | 32.2 | 0.00 | 0.53 | 0.00 | 42 | 999.5 |
| 20260506144803 | 24 | 209 | 14.5 | 32.2 | 0.00 | 0.53 | 0.00 | 38 | 999.3 |
| 20260506144703 | 24 | 209 | 14.5 | 32.2 | 0.00 | 0.53 | 0.00 | 40 | 999.4 |
| 20260506144603 | 24 | 208 | 12.9 | 32.2 | 0.00 | 0.61 | 0.00 | 40 | 999.4 |
| 20260506144503 | 24 | 204 | 12.9 | 27.4 | 0.00 | 0.61 | 0.00 | 39 | 999.3 |
| 20260506144403 | 24 | 199 | 14.5 | 27.4 | 0.00 | 0.61 | 0.00 | 39 | 999.3 |
| 20260506144303 | 24 | 195 | 12.9 | 25.7 | 0.00 | 0.61 | 0.00 | 37 | 999.3 |
| 20260506144203 | 24 | 192 | 12.9 | 30.6 | 0.00 | 0.61 | 0.00 | 37 | 999.1 |
| 20260506144103 | 24 | 193 | 12.9 | 30.6 | 0.00 | 0.61 | 0.00 | 39 | 999.4 |
| 20260506144003 | 24 | 194 | 12.9 | 30.6 | 0.00 | 0.61 | 0.00 | 37 | 999.4 |
| 20260506143903 | 24 | 195 | 14.5 | 30.6 | 0.00 | 0.61 | 0.00 | 38 | 999.4 |
| 20260506143803 | 24 | 194 | 14.5 | 30.6 | 0.00 | 0.61 | 0.00 | 38 | 999.5 |
| 20260506143703 | 25 | 190 | 14.5 | 30.6 | 0.00 | 0.61 | 0.00 | 37 | 999.4 |
| 20260506143603 | 25 | 186 | 14.5 | 33.8 | 0.00 | 0.61 | 0.00 | 37 | 999.3 |
| 20260506143503 | 25 | 184 | 16.1 | 33.8 | 0.00 | 0.61 | 0.00 | 37 | 999.3 |
| 20260506143403 | 25 | 184 | 16.1 | 33.8 | 0.00 | 0.61 | 0.00 | 39 | 999.1 |
| 20260506143303 | 25 | 185 | 14.5 | 33.8 | 0.00 | 0.61 | 0.00 | 36 | 999.3 |
| 20260506143219 | 25 | 187 | 14.5 | 33.8 | 0.00 | 0.61 | 0.00 | 38 | 999.3 |
| 20260506143203 | 25 | 187 | 14.5 | 33.8 | 0.00 | 0.61 | 0.00 | 38 | 999.3 |
| 20260506143103 | 25 | 186 | 14.5 | 33.8 | 0.00 | 0.61 | 0.00 | 38 | 999.2 |
| 20260506142903 | 25 | 182 | 14.5 | 33.8 | 0.00 | 0.61 | 0.00 | 37 | 999.2 |
| 20260506142818 | 25 | 181 | 14.5 | 33.8 | 0.00 | 0.61 | 0.00 | 38 | 999.2 |
| 20260506142803 | 25 | 181 | 14.5 | 33.8 | 0.00 | 0.61 | 0.00 | 38 | 999.2 |
| 20260506142703 | 25 | 186 | 14.5 | 33.8 | 0.00 | 0.61 | 0.00 | 35 | 999.2 |
| 20260506142621 | 25 | 189 | 14.5 | 33.8 | 0.00 | 0.61 | 0.00 | 37 | 999.2 |
| 20260506142503 | 25 | 193 | 14.5 | 30.6 | 0.00 | 0.61 | 0.00 | 39 | 999.4 |
| 20260506142319 | 25 | 194 | 14.5 | 30.6 | 0.00 | 0.61 | 0.00 | 36 | 999.2 |
| 20260506142305 | 25 | 194 | 14.5 | 30.6 | 0.00 | 0.61 | 0.00 | 36 | 999.2 |
| 20260506142203 | 25 | 193 | 14.5 | 30.6 | 0.00 | 0.61 | 0.00 | 35 | 999.1 |
| 20260506142019 | 25 | 192 | 14.5 | 30.6 | 0.00 | 0.61 | 0.00 | 36 | 999.3 |
| 20260506142003 | 25 | 192 | 14.5 | 30.6 | 0.00 | 0.61 | 0.00 | 36 | 999.3 |
| 20260506141903 | 25 | 191 | 14.5 | 30.6 | 0.00 | 0.61 | 0.00 | 39 | 999.1 |
| 20260506141703 | 25 | 187 | 12.9 | 30.6 | 0.00 | 0.61 | 0.00 | 37 | 999.2 |
| 20260506141603 | 25 | 186 | 12.9 | 30.6 | 0.00 | 0.61 | 0.00 | 38 | 999.1 |
| 20260506141503 | 25 | 183 | 11.3 | 29.0 | 0.00 | 0.61 | 0.00 | 36 | 999.1 |
| 20260506141403 | 25 | 182 | 11.3 | 29.0 | 0.00 | 0.61 | 0.00 | 37 | 999.3 |
| 20260506141303 | 25 | 177 | 11.3 | 29.0 | 0.00 | 0.61 | 0.00 | 36 | 999.3 |
| 20260506141203 | 25 | 172 | 9.7 | 29.0 | 0.00 | 0.61 | 0.00 | 40 | 999.1 |
| 20260506141104 | 25 | 171 | 9.7 | 22.5 | 0.00 | 0.61 | 0.00 | 36 | 999.1 |
| 20260506141016 | 25 | 169 | 11.3 | 22.5 | 0.00 | 0.61 | 0.00 | 36 | 999.3 |
| 20260506141003 | 25 | 169 | 11.3 | 22.5 | 0.00 | 0.61 | 0.00 | 36 | 999.3 |
| 20260506140903 | 25 | 170 | 11.3 | 22.5 | 0.00 | 0.61 | 0.00 | 37 | 999.4 |
| 20260506140703 | 26 | 169 | 11.3 | 22.5 | 0.00 | 0.61 | 0.00 | 37 | 999.1 |
| 20260506140620 | 26 | 170 | 11.3 | 22.5 | 0.00 | 0.61 | 0.00 | 37 | 999.1 |
| 20260506140603 | 25 | 169 | 11.3 | 22.5 | 0.00 | 0.61 | 0.00 | 38 | 999.1 |
| 20260506140503 | 25 | 167 | 11.3 | 25.7 | 0.00 | 0.61 | 0.00 | 39 | 999.1 |
| 20260506140303 | 25 | 168 | 11.3 | 25.7 | 0.00 | 0.61 | 0.00 | 37 | 999.2 |
| 20260506140203 | 25 | 171 | 12.9 | 30.6 | 0.00 | 0.61 | 0.00 | 37 | 999.3 |
| 20260506140103 | 25 | 170 | 12.9 | 30.6 | 0.00 | 0.61 | 0.00 | 38 | 999.2 |
| 20260506140018 | 25 | 169 | 12.9 | 30.6 | 0.00 | 0.61 | 0.00 | 36 | 999.2 |
| 20260506140003 | 25 | 169 | 12.9 | 30.6 | 0.00 | 0.61 | 0.00 | 36 | 999.2 |
| 20260506135903 | 25 | 168 | 12.9 | 30.6 | 0.00 | 0.61 | 0.00 | 37 | 999.2 |
| 20260506135703 | 25 | 170 | 12.9 | 30.6 | 0.00 | 0.61 | 0.00 | 38 | 999.1 |
| 20260506135617 | 25 | 168 | 14.5 | 30.6 | 0.00 | 0.61 | 0.00 | 38 | 999.1 |
| 20260506135603 | 25 | 167 | 14.5 | 30.6 | 0.00 | 0.61 | 0.00 | 38 | 999.1 |
| 20260506135503 | 25 | 167 | 14.5 | 30.6 | 0.00 | 0.61 | 0.00 | 38 | 999.4 |
| 20260506135306 | 25 | 169 | 12.9 | 30.6 | 0.00 | 0.61 | 0.00 | 36 | 999.2 |
| 20260506135203 | 25 | 168 | 12.9 | 30.6 | 0.00 | 0.61 | 0.00 | 37 | 999.1 |
| 20260506135117 | 25 | 168 | 12.9 | 30.6 | 0.00 | 0.61 | 0.00 | 37 | 999.1 |
| 20260506135103 | 25 | 167 | 11.3 | 27.4 | 0.00 | 0.61 | 0.00 | 37 | 999.1 |
| 20260506135003 | 25 | 165 | 11.3 | 22.5 | 0.00 | 0.61 | 0.00 | 38 | 999.1 |
| 20260506134803 | 25 | 165 | 11.3 | 29.0 | 0.00 | 0.61 | 0.00 | 38 | 999.2 |
| 20260506134703 | 25 | 163 | 11.3 | 29.0 | 0.00 | 0.61 | 0.00 | 38 | 999.0 |
| 20260506134603 | 25 | 162 | 11.3 | 30.6 | 0.00 | 0.61 | 0.00 | 36 | 999.2 |
| 20260506134503 | 25 | 163 | 12.9 | 30.6 | 0.00 | 0.61 | 0.00 | 35 | 999.2 |
| 20260506134403 | 25 | 163 | 12.9 | 30.6 | 0.00 | 0.61 | 0.00 | 36 | 999.2 |
| 20260506134304 | 25 | 163 | 12.9 | 30.6 | 0.00 | 0.61 | 0.00 | 36 | 999.1 |
| 20260506134203 | 25 | 163 | 12.9 | 30.6 | 0.00 | 0.61 | 0.00 | 42 | 999.3 |
| 20260506134120 | 25 | 163 | 12.9 | 30.6 | 0.00 | 0.61 | 0.00 | 36 | 999.2 |
| 20260506134103 | 25 | 163 | 12.9 | 30.6 | 0.00 | 0.61 | 0.00 | 36 | 999.2 |
| 20260506134003 | 25 | 165 | 14.5 | 30.6 | 0.00 | 0.61 | 0.00 | 38 | 999.1 |
| 20260506133803 | 25 | 166 | 14.5 | 30.6 | 0.00 | 0.61 | 0.00 | 37 | 999.4 |
| 20260506133703 | 26 | 167 | 14.5 | 30.6 | 0.00 | 0.61 | 0.00 | 38 | 999.4 |
| 20260506133603 | 26 | 167 | 14.5 | 30.6 | 0.00 | 0.61 | 0.00 | 36 | 999.4 |
| 20260506133503 | 26 | 168 | 14.5 | 30.6 | 0.00 | 0.61 | 0.00 | 36 | 999.4 |
| 20260506133403 | 26 | 167 | 14.5 | 30.6 | 0.00 | 0.61 | 0.00 | 35 | 999.3 |
| 20260506133303 | 26 | 167 | 14.5 | 30.6 | 0.00 | 0.61 | 0.00 | 32 | 999.1 |
| 20260506133203 | 26 | 167 | 14.5 | 30.6 | 0.00 | 0.61 | 0.00 | 35 | 999.1 |
| 20260506133103 | 26 | 168 | 14.5 | 30.6 | 0.00 | 0.61 | 0.00 | 35 | 999.1 |
| 20260506133003 | 26 | 170 | 14.5 | 30.6 | 0.00 | 0.61 | 0.00 | 36 | 999.2 |
| 20260506132919 | 26 | 172 | 14.5 | 35.4 | 0.00 | 0.61 | 0.00 | 36 | 999.3 |
| 20260506132903 | 26 | 174 | 14.5 | 35.4 | 0.00 | 0.61 | 0.00 | 36 | 999.5 |
| 20260506132817 | 26 | 179 | 14.5 | 35.4 | 0.00 | 0.61 | 0.00 | 36 | 999.5 |
| 20260506132803 | 26 | 179 | 14.5 | 35.4 | 0.00 | 0.61 | 0.00 | 36 | 999.5 |
| 20260506132503 | 26 | 183 | 16.1 | 37.0 | 0.00 | 0.61 | 0.00 | 35 | 999.3 |
| 20260506132403 | 26 | 182 | 16.1 | 37.0 | 0.00 | 0.61 | 0.00 | 36 | 999.2 |
| 20260506132306 | 26 | 184 | 16.1 | 37.0 | 0.00 | 0.61 | 0.00 | 37 | 999.2 |
| 20260506132203 | 26 | 184 | 14.5 | 37.0 | 0.00 | 0.61 | 0.00 | 33 | 999.3 |
| 20260506132103 | 26 | 184 | 14.5 | 37.0 | 0.00 | 0.61 | 0.00 | 34 | 999.3 |
| 20260506132018 | 26 | 181 | 14.5 | 37.0 | 0.00 | 0.61 | 0.00 | 35 | 999.1 |
| 20260506132003 | 26 | 180 | 14.5 | 37.0 | 0.00 | 0.61 | 0.00 | 35 | 999.1 |
| 20260506131903 | 26 | 174 | 14.5 | 37.0 | 0.00 | 0.61 | 0.00 | 34 | 999.1 |
| 20260506131703 | 26 | 164 | 14.5 | 37.0 | 0.00 | 0.61 | 0.00 | 33 | 999.4 |
| 20260506131603 | 26 | 163 | 16.1 | 37.0 | 0.00 | 0.61 | 0.00 | 33 | 999.1 |
| 20260506131503 | 26 | 161 | 14.5 | 32.2 | 0.00 | 0.61 | 0.00 | 37 | 999.3 |
| 20260506131403 | 26 | 160 | 14.5 | 32.2 | 0.00 | 0.61 | 0.00 | 41 | 999.2 |
| 20260506131303 | 26 | 159 | 16.1 | 32.2 | 0.00 | 0.61 | 0.00 | 36 | 999.4 |
| 20260506131203 | 26 | 159 | 16.1 | 32.2 | 0.00 | 0.61 | 0.00 | 36 | 999.1 |
| 20260506131103 | 26 | 159 | 16.1 | 32.2 | 0.00 | 0.61 | 0.00 | 36 | 999.1 |
| 20260506131016 | 25 | 159 | 16.1 | 32.2 | 0.00 | 0.61 | 0.00 | 37 | 999.4 |
| 20260506131003 | 25 | 159 | 16.1 | 32.2 | 0.00 | 0.61 | 0.00 | 37 | 999.4 |
| 20260506130903 | 25 | 159 | 16.1 | 32.2 | 0.00 | 0.61 | 0.00 | 37 | 999.3 |
| 20260506130716 | 25 | 159 | 14.5 | 32.2 | 0.00 | 0.61 | 0.00 | 36 | 999.3 |
| 20260506130703 | 25 | 160 | 14.5 | 32.2 | 0.00 | 0.61 | 0.00 | 36 | 999.3 |
| 20260506130603 | 25 | 158 | 14.5 | 30.6 | 0.00 | 0.61 | 0.00 | 39 | 999.4 |
| 20260506130403 | 25 | 158 | 14.5 | 37.0 | 0.00 | 0.61 | 0.00 | 38 | 999.4 |
| 20260506130303 | 25 | 159 | 14.5 | 37.0 | 0.00 | 0.61 | 0.00 | 37 | 999.7 |
| 20260506130203 | 25 | 157 | 14.5 | 37.0 | 0.00 | 0.61 | 0.00 | 36 | 999.2 |
| 20260506130103 | 25 | 155 | 16.1 | 37.0 | 0.00 | 0.61 | 0.00 | 37 | 999.5 |
| 20260506130004 | 25 | 154 | 16.1 | 37.0 | 0.00 | 0.61 | 0.00 | 36 | 999.5 |
| 20260506125903 | 25 | 153 | 17.7 | 37.0 | 0.00 | 0.61 | 0.00 | 36 | 999.4 |
| 20260506125803 | 26 | 153 | 19.3 | 37.0 | 0.00 | 0.61 | 0.00 | 38 | 999.2 |
| 20260506125703 | 25 | 152 | 19.3 | 37.0 | 0.00 | 0.61 | 0.00 | 38 | 999.5 |
| 20260506125603 | 25 | 154 | 19.3 | 37.0 | 0.00 | 0.61 | 0.00 | 37 | 999.5 |
| 20260506125503 | 25 | 155 | 19.3 | 37.0 | 0.00 | 0.61 | 0.00 | 38 | 999.4 |
| 20260506125403 | 25 | 155 | 19.3 | 37.0 | 0.00 | 0.61 | 0.00 | 36 | 999.4 |
| 20260506125305 | 25 | 154 | 17.7 | 37.0 | 0.00 | 0.61 | 0.00 | 39 | 999.4 |
| 20260506125203 | 25 | 154 | 17.7 | 33.8 | 0.00 | 0.61 | 0.00 | 39 | 999.4 |
| 20260506125103 | 25 | 155 | 17.7 | 32.2 | 0.00 | 0.61 | 0.00 | 38 | 999.3 |
| 20260506125003 | 25 | 156 | 17.7 | 32.2 | 0.00 | 0.61 | 0.00 | 36 | 999.2 |
| 20260506124903 | 25 | 158 | 16.1 | 30.6 | 0.00 | 0.61 | 0.00 | 35 | 999.4 |
| 20260506124803 | 25 | 161 | 14.5 | 30.6 | 0.00 | 0.61 | 0.00 | 38 | 999.3 |
| 20260506124703 | 25 | 163 | 16.1 | 30.6 | 0.00 | 0.61 | 0.00 | 36 | 999.3 |
| 20260506124603 | 25 | 161 | 14.5 | 30.6 | 0.00 | 0.61 | 0.00 | 36 | 999.7 |
| 20260506124503 | 25 | 159 | 14.5 | 27.4 | 0.00 | 0.61 | 0.00 | 38 | 999.7 |
| 20260506124403 | 25 | 156 | 14.5 | 27.4 | 0.00 | 0.61 | 0.00 | 37 | 999.2 |
| 20260506124303 | 25 | 156 | 14.5 | 27.4 | 0.00 | 0.61 | 0.00 | 37 | 999.3 |
| 20260506124203 | 25 | 157 | 12.9 | 27.4 | 0.00 | 0.61 | 0.00 | 37 | 999.4 |
| 20260506124103 | 25 | 157 | 12.9 | 27.4 | 0.00 | 0.61 | 0.00 | 38 | 999.5 |
| 20260506124018 | 25 | 156 | 12.9 | 27.4 | 0.00 | 0.61 | 0.00 | 37 | 999.8 |
| 20260506124003 | 25 | 156 | 12.9 | 27.4 | 0.00 | 0.61 | 0.00 | 37 | 999.8 |
| 20260506123903 | 25 | 155 | 12.9 | 27.4 | 0.00 | 0.61 | 0.00 | 34 | 999.4 |
| 20260506123717 | 26 | 149 | 12.9 | 27.4 | 0.00 | 0.61 | 0.00 | 38 | 999.5 |
| 20260506123703 | 26 | 149 | 12.9 | 27.4 | 0.00 | 0.61 | 0.00 | 38 | 999.5 |
| 20260506123603 | 26 | 147 | 12.9 | 27.4 | 0.00 | 0.61 | 0.00 | 34 | 999.3 |
| 20260506123417 | 26 | 152 | 14.5 | 27.4 | 0.00 | 0.61 | 0.00 | 36 | 999.5 |
| 20260506123403 | 26 | 152 | 14.5 | 27.4 | 0.00 | 0.61 | 0.00 | 36 | 999.4 |
| 20260506123303 | 26 | 153 | 14.5 | 27.4 | 0.00 | 0.61 | 0.00 | 35 | 999.4 |
| 20260506123103 | 26 | 151 | 14.5 | 27.4 | 0.00 | 0.61 | 0.00 | 35 | 999.3 |
| 20260506123004 | 26 | 149 | 14.5 | 27.4 | 0.00 | 0.61 | 0.00 | 37 | 999.4 |
| 20260506122903 | 26 | 147 | 14.5 | 27.4 | 0.00 | 0.61 | 0.00 | 36 | 999.4 |
| 20260506122817 | 26 | 145 | 14.5 | 27.4 | 0.00 | 0.61 | 0.00 | 36 | 999.5 |
| 20260506122803 | 26 | 144 | 14.5 | 27.4 | 0.00 | 0.61 | 0.00 | 38 | 999.2 |
| 20260506122703 | 26 | 141 | 14.5 | 27.4 | 0.00 | 0.61 | 0.00 | 38 | 999.2 |
| 20260506122503 | 26 | 142 | 14.5 | 27.4 | 0.00 | 0.61 | 0.00 | 34 | 999.4 |
| 20260506122403 | 26 | 141 | 12.9 | 27.4 | 0.00 | 0.61 | 0.00 | 36 | 999.4 |
| 20260506122305 | 25 | 138 | 11.3 | 27.4 | 0.00 | 0.61 | 0.00 | 42 | 999.3 |
| 20260506122203 | 25 | 140 | 11.3 | 27.4 | 0.00 | 0.61 | 0.00 | 38 | 999.5 |
| 20260506122103 | 25 | 139 | 11.3 | 27.4 | 0.00 | 0.61 | 0.00 | 39 | 999.2 |
| 20260506122018 | 25 | 138 | 11.3 | 27.4 | 0.00 | 0.61 | 0.00 | 36 | 999.4 |
| 20260506122003 | 25 | 139 | 11.3 | 27.4 | 0.00 | 0.61 | 0.00 | 36 | 999.2 |
| 20260506121916 | 25 | 138 | 11.3 | 27.4 | 0.00 | 0.61 | 0.00 | 39 | 999.2 |
| 20260506121903 | 25 | 138 | 9.7 | 27.4 | 0.00 | 0.61 | 0.00 | 39 | 999.2 |
| 20260506121603 | 25 | 151 | 6.4 | 25.7 | 0.00 | 0.61 | 0.00 | 40 | 999.2 |
| 20260506121503 | 25 | 148 | 6.4 | 22.5 | 0.00 | 0.61 | 0.00 | 42 | 999.1 |
| 20260506121403 | 25 | 145 | 8.0 | 22.5 | 0.00 | 0.61 | 0.00 | 40 | 999.5 |
| 20260506121303 | 25 | 150 | 8.0 | 22.5 | 0.00 | 0.61 | 0.00 | 36 | 999.5 |
| 20260506121203 | 25 | 150 | 6.4 | 22.5 | 0.00 | 0.61 | 0.00 | 36 | 999.5 |
| 20260506121103 | 25 | 152 | 6.4 | 22.5 | 0.00 | 0.61 | 0.00 | 35 | 999.5 |
| 20260506121016 | 25 | 155 | 6.4 | 22.5 | 0.00 | 0.61 | 0.00 | 34 | 999.5 |
| 20260506121003 | 25 | 155 | 6.4 | 22.5 | 0.00 | 0.61 | 0.00 | 34 | 999.5 |
| 20260506120903 | 25 | 156 | 6.4 | 22.5 | 0.00 | 0.61 | 0.00 | 35 | 999.5 |
| 20260506120703 | 26 | 155 | 6.4 | 22.5 | 0.00 | 0.61 | 0.00 | 38 | 999.7 |
| 20260506120603 | 26 | 152 | 6.4 | 22.5 | 0.00 | 0.61 | 0.00 | 37 | 999.7 |
| 20260506120503 | 26 | 148 | 6.4 | 22.5 | 0.00 | 0.61 | 0.00 | 40 | 999.7 |
| 20260506120403 | 25 | 141 | 6.4 | 14.5 | 0.00 | 0.61 | 0.00 | 40 | 999.3 |
| 20260506120318 | 26 | 137 | 6.4 | 14.5 | 0.00 | 0.61 | 0.00 | 39 | 999.3 |
| 20260506120303 | 26 | 136 | 6.4 | 14.5 | 0.00 | 0.61 | 0.00 | 39 | 999.3 |
| 20260506120203 | 26 | 131 | 6.4 | 14.5 | 0.00 | 0.61 | 0.00 | 37 | 999.4 |
| 20260506120003 | 26 | 129 | 4.8 | 14.5 | 0.00 | 0.61 | 0.00 | 39 | 999.8 |
| 20260506115916 | 26 | 127 | 4.8 | 14.5 | 0.00 | 0.61 | 0.00 | 44 | 999.7 |
| 20260506115903 | 26 | 126 | 4.8 | 14.5 | 0.00 | 0.61 | 0.00 | 44 | 999.5 |
| 20260506115803 | 26 | 122 | 4.8 | 14.5 | 0.00 | 0.61 | 0.00 | 43 | 999.5 |
| 20260506115603 | 25 | 87 | 4.8 | 14.5 | 0.00 | 0.61 | 0.00 | 43 | 999.4 |
| 20260506115503 | 25 | 79 | 4.8 | 14.5 | 0.00 | 0.61 | 0.00 | 43 | 999.7 |
| 20260506115403 | 25 | 77 | 4.8 | 12.9 | 0.00 | 0.61 | 0.00 | 43 | 999.8 |
| 20260506115306 | 25 | 73 | 3.2 | 9.7 | 0.00 | 0.61 | 0.00 | 41 | 999.8 |
| 20260506115203 | 25 | 63 | 3.2 | 9.7 | 0.00 | 0.61 | 0.00 | 44 | 999.8 |
| 20260506115117 | 25 | 55 | 3.2 | 9.7 | 0.00 | 0.61 | 0.00 | 43 | 999.8 |
| 20260506115103 | 25 | 54 | 3.2 | 9.7 | 0.00 | 0.61 | 0.00 | 43 | 999.8 |
| 20260506115019 | 25 | 50 | 3.2 | 11.3 | 0.00 | 0.61 | 0.00 | 40 | 1000.0 |
| 20260506115003 | 25 | 49 | 3.2 | 11.3 | 0.00 | 0.61 | 0.00 | 40 | 1000.0 |
| 20260506114703 | 24 | 55 | 4.8 | 11.3 | 0.00 | 0.61 | 0.00 | 40 | 999.8 |
| 20260506114618 | 24 | 58 | 4.8 | 11.3 | 0.00 | 0.61 | 0.00 | 40 | 999.8 |
| 20260506114603 | 24 | 59 | 4.8 | 11.3 | 0.00 | 0.61 | 0.00 | 40 | 999.8 |
| 20260506114503 | 24 | 72 | 4.8 | 14.5 | 0.00 | 0.61 | 0.00 | 40 | 999.8 |
| 20260506114419 | 24 | 82 | 4.8 | 14.5 | 0.00 | 0.61 | 0.00 | 42 | 999.8 |
| 20260506114308 | 24 | 95 | 4.8 | 14.5 | 0.00 | 0.61 | 0.00 | 45 | 999.8 |
| 20260506114103 | 24 | 112 | 6.4 | 14.5 | 0.00 | 0.61 | 0.00 | 46 | 1000.0 |
| 20260506114003 | 24 | 121 | 6.4 | 14.5 | 0.00 | 0.61 | 0.00 | 46 | 1000.0 |
| 20260506113903 | 24 | 124 | 6.4 | 14.5 | 0.00 | 0.61 | 0.00 | 43 | 1000.1 |
| 20260506113803 | 24 | 127 | 6.4 | 14.5 | 0.00 | 0.61 | 0.00 | 42 | 1000.1 |
| 20260506113703 | 24 | 134 | 6.4 | 14.5 | 0.00 | 0.61 | 0.00 | 42 | 1000.0 |
| 20260506113603 | 24 | 136 | 6.4 | 14.5 | 0.00 | 0.61 | 0.00 | 49 | 999.9 |
| 20260506113503 | 24 | 134 | 6.4 | 14.5 | 0.00 | 0.61 | 0.00 | 49 | 1000.1 |
| 20260506113403 | 24 | 130 | 6.4 | 14.5 | 0.00 | 0.61 | 0.00 | 45 | 1000.1 |
| 20260506113303 | 24 | 130 | 6.4 | 12.9 | 0.00 | 0.61 | 0.00 | 44 | 1000.0 |
| 20260506113213 | 24 | 129 | 6.4 | 12.9 | 0.00 | 0.61 | 0.00 | 47 | 1000.0 |
| 20260506113103 | 24 | 125 | 6.4 | 12.9 | 0.00 | 0.61 | 0.00 | 45 | 1000.2 |
| 20260506113003 | 24 | 122 | 6.4 | 12.9 | 0.00 | 0.61 | 0.00 | 47 | 1000.2 |
| 20260506112903 | 24 | 123 | 6.4 | 12.9 | 0.00 | 0.61 | 0.00 | 48 | 1000.2 |
| 20260506112803 | 24 | 123 | 6.4 | 12.9 | 0.00 | 0.61 | 0.00 | 45 | 1000.1 |
| 20260506112703 | 24 | 120 | 6.4 | 12.9 | 0.00 | 0.61 | 0.00 | 42 | 1000.1 |
| 20260506112603 | 24 | 118 | 4.8 | 11.3 | 0.00 | 0.61 | 0.00 | 44 | 1000.3 |
| 20260506112503 | 24 | 122 | 4.8 | 11.3 | 0.00 | 0.61 | 0.00 | 44 | 1000.3 |
| 20260506112403 | 24 | 123 | 4.8 | 11.3 | 0.00 | 0.61 | 0.00 | 46 | 1000.4 |
| 20260506112317 | 24 | 121 | 4.8 | 11.3 | 0.00 | 0.61 | 0.00 | 46 | 1000.4 |
| 20260506112305 | 24 | 122 | 4.8 | 11.3 | 0.00 | 0.61 | 0.00 | 46 | 1000.4 |
| 20260506112203 | 24 | 123 | 4.8 | 11.3 | 0.00 | 0.61 | 0.00 | 46 | 1000.2 |
| 20260506112003 | 24 | 133 | 4.8 | 12.9 | 0.00 | 0.61 | 0.00 | 44 | 1000.5 |
| 20260506111903 | 24 | 137 | 4.8 | 12.9 | 0.00 | 0.61 | 0.00 | 41 | 1000.5 |
| 20260506111803 | 24 | 141 | 6.4 | 12.9 | 0.00 | 0.61 | 0.00 | 47 | 1000.5 |
| 20260506111703 | 24 | 148 | 6.4 | 14.5 | 0.00 | 0.61 | 0.00 | 44 | 1000.2 |
| 20260506111603 | 24 | 152 | 6.4 | 14.5 | 0.00 | 0.61 | 0.00 | 47 | 1000.5 |
| 20260506111503 | 24 | 152 | 6.4 | 14.5 | 0.00 | 0.61 | 0.00 | 43 | 1000.5 |
| 20260506111403 | 24 | 155 | 6.4 | 14.5 | 0.00 | 0.61 | 0.00 | 47 | 1000.6 |
| 20260506111203 | 23 | 156 | 6.4 | 14.5 | 0.00 | 0.61 | 0.00 | 48 | 1000.5 |
| 20260506111103 | 23 | 157 | 6.4 | 14.5 | 0.00 | 0.61 | 0.00 | 47 | 1000.5 |
| 20260506111003 | 23 | 157 | 6.4 | 16.1 | 0.00 | 0.61 | 0.00 | 47 | 1000.5 |
| 20260506110903 | 23 | 158 | 6.4 | 16.1 | 0.00 | 0.61 | 0.00 | 45 | 1000.5 |
| 20260506110803 | 23 | 152 | 8.0 | 17.7 | 0.00 | 0.61 | 0.00 | 44 | 1000.2 |
| 20260506110703 | 23 | 145 | 8.0 | 20.9 | 0.00 | 0.61 | 0.00 | 44 | 1000.4 |
| 20260506110604 | 23 | 138 | 8.0 | 20.9 | 0.00 | 0.61 | 0.00 | 47 | 1000.6 |
| 20260506110503 | 23 | 137 | 8.0 | 20.9 | 0.00 | 0.61 | 0.00 | 46 | 1000.3 |
| 20260506110403 | 23 | 136 | 9.7 | 20.9 | 0.00 | 0.61 | 0.00 | 47 | 1000.3 |
| 20260506110303 | 23 | 130 | 9.7 | 20.9 | 0.00 | 0.61 | 0.00 | 47 | 1000.3 |
| 20260506110203 | 23 | 129 | 9.7 | 20.9 | 0.00 | 0.61 | 0.00 | 50 | 1000.3 |
| 20260506110103 | 23 | 128 | 9.7 | 20.9 | 0.00 | 0.61 | 0.00 | 45 | 1000.4 |
| 20260506110003 | 23 | 128 | 9.7 | 20.9 | 0.00 | 0.61 | 0.00 | 49 | 1000.3 |
| 20260506105916 | 23 | 123 | 8.0 | 20.9 | 0.00 | 0.61 | 0.00 | 46 | 1000.3 |
| 20260506105903 | 23 | 123 | 8.0 | 20.9 | 0.00 | 0.61 | 0.00 | 46 | 1000.3 |
| 20260506105803 | 23 | 119 | 8.0 | 20.9 | 0.00 | 0.61 | 0.00 | 45 | 1000.4 |
| 20260506105717 | 23 | 116 | 8.0 | 20.9 | 0.00 | 0.61 | 0.00 | 46 | 1000.4 |
| 20260506105603 | 23 | 112 | 8.0 | 20.9 | 0.00 | 0.61 | 0.00 | 47 | 1000.4 |
| 20260506105403 | 23 | 92 | 6.4 | 12.9 | 0.00 | 0.61 | 0.00 | 45 | 1000.6 |
| 20260506105305 | 23 | 94 | 6.4 | 12.9 | 0.00 | 0.61 | 0.00 | 46 | 1000.4 |
| 20260506105203 | 23 | 91 | 6.4 | 12.9 | 0.00 | 0.61 | 0.00 | 48 | 1000.7 |
| 20260506105116 | 23 | 88 | 6.4 | 12.9 | 0.00 | 0.61 | 0.00 | 48 | 1000.7 |
| 20260506105103 | 23 | 87 | 6.4 | 12.9 | 0.00 | 0.61 | 0.00 | 48 | 1000.7 |
| 20260506105003 | 23 | 76 | 6.4 | 12.9 | 0.00 | 0.61 | 0.00 | 50 | 1000.5 |
| 20260506104803 | 23 | 67 | 6.4 | 11.3 | 0.00 | 0.61 | 0.00 | 45 | 1000.4 |
| 20260506104703 | 23 | 65 | 4.8 | 11.3 | 0.00 | 0.61 | 0.00 | 47 | 1000.6 |
| 20260506104603 | 23 | 68 | 4.8 | 11.3 | 0.00 | 0.61 | 0.00 | 45 | 1000.6 |
| 20260506104503 | 23 | 64 | 4.8 | 11.3 | 0.00 | 0.61 | 0.00 | 49 | 1000.6 |
| 20260506104403 | 23 | 58 | 4.8 | 9.7 | 0.00 | 0.61 | 0.00 | 47 | 1000.8 |
| 20260506104303 | 23 | 64 | 4.8 | 9.7 | 0.00 | 0.61 | 0.00 | 49 | 1000.8 |
| 20260506104203 | 23 | 66 | 4.8 | 9.7 | 0.00 | 0.61 | 0.00 | 52 | 1000.8 |
| 20260506104103 | 23 | 63 | 3.2 | 9.7 | 0.00 | 0.61 | 0.00 | 49 | 1000.6 |
| 20260506104003 | 23 | 71 | 3.2 | 9.7 | 0.00 | 0.61 | 0.00 | 51 | 1000.6 |
| 20260506103903 | 23 | 69 | 3.2 | 9.7 | 0.00 | 0.61 | 0.00 | 53 | 1000.6 |
| 20260506103803 | 23 | 63 | 3.2 | 12.9 | 0.00 | 0.61 | 0.00 | 48 | 1000.6 |
| 20260506103703 | 23 | 69 | 4.8 | 12.9 | 0.00 | 0.61 | 0.00 | 48 | 1000.6 |
| 20260506103619 | 23 | 72 | 4.8 | 19.3 | 0.00 | 0.61 | 0.00 | 48 | 1000.6 |
| 20260506103603 | 23 | 73 | 4.8 | 20.9 | 0.00 | 0.61 | 0.00 | 51 | 1000.7 |
| 20260506103503 | 23 | 79 | 4.8 | 20.9 | 0.00 | 0.61 | 0.00 | 51 | 1000.7 |
| 20260506103319 | 23 | 92 | 6.4 | 20.9 | 0.00 | 0.61 | 0.00 | 55 | 1000.7 |
| 20260506103303 | 23 | 94 | 6.4 | 20.9 | 0.00 | 0.61 | 0.00 | 55 | 1000.6 |
| 20260506103203 | 23 | 96 | 6.4 | 20.9 | 0.00 | 0.61 | 0.00 | 54 | 1000.6 |
| 20260506103116 | 23 | 94 | 6.4 | 20.9 | 0.00 | 0.61 | 0.00 | 52 | 1000.5 |
| 20260506103003 | 23 | 95 | 6.4 | 20.9 | 0.00 | 0.61 | 0.00 | 50 | 1000.8 |
| 20260506102803 | 23 | 108 | 6.4 | 20.9 | 0.00 | 0.61 | 0.00 | 51 | 1000.9 |
| 20260506102703 | 23 | 116 | 8.0 | 20.9 | 0.00 | 0.61 | 0.00 | 54 | 1000.9 |
| 20260506102603 | 22 | 122 | 8.0 | 20.9 | 0.00 | 0.61 | 0.00 | 56 | 1000.8 |
| 20260506102503 | 22 | 127 | 6.4 | 20.9 | 0.00 | 0.61 | 0.00 | 57 | 1000.8 |
| 20260506102403 | 22 | 131 | 6.4 | 17.7 | 0.00 | 0.61 | 0.00 | 51 | 1000.9 |
| 20260506102305 | 22 | 127 | 6.4 | 17.7 | 0.00 | 0.61 | 0.00 | 52 | 1000.9 |
| 20260506102216 | 22 | 121 | 6.4 | 14.5 | 0.00 | 0.61 | 0.00 | 52 | 1000.9 |
| 20260506102203 | 23 | 121 | 6.4 | 14.5 | 0.00 | 0.61 | 0.00 | 53 | 1000.9 |
| 20260506102103 | 23 | 117 | 6.4 | 14.5 | 0.00 | 0.61 | 0.00 | 51 | 1000.9 |
| 20260506101920 | 23 | 119 | 6.4 | 14.5 | 0.00 | 0.61 | 0.00 | 54 | 1000.9 |
| 20260506101903 | 23 | 118 | 6.4 | 14.5 | 0.00 | 0.61 | 0.00 | 54 | 1000.7 |
| 20260506101818 | 23 | 110 | 6.4 | 14.5 | 0.00 | 0.61 | 0.00 | 54 | 1000.7 |
| 20260506101803 | 23 | 105 | 6.4 | 14.5 | 0.00 | 0.61 | 0.00 | 54 | 1001.0 |
| 20260506101503 | 22 | 80 | 6.4 | 14.5 | 0.00 | 0.61 | 0.00 | 60 | 1000.9 |
| 20260506101403 | 22 | 77 | 6.4 | 17.7 | 0.00 | 0.61 | 0.00 | 57 | 1001.0 |
| 20260506101303 | 22 | 84 | 6.4 | 19.3 | 0.00 | 0.61 | 0.00 | 57 | 1001.0 |
| 20260506101203 | 22 | 93 | 6.4 | 19.3 | 0.00 | 0.61 | 0.00 | 59 | 1001.0 |
| 20260506101103 | 22 | 95 | 8.0 | 19.3 | 0.00 | 0.61 | 0.00 | 58 | 1001.0 |
| 20260506101003 | 22 | 90 | 8.0 | 19.3 | 0.00 | 0.61 | 0.00 | 57 | 1000.9 |
| 20260506100903 | 22 | 86 | 8.0 | 19.3 | 0.00 | 0.61 | 0.00 | 57 | 1000.9 |
| 20260506100816 | 22 | 83 | 8.0 | 19.3 | 0.00 | 0.61 | 0.00 | 57 | 1001.0 |
| 20260506100803 | 22 | 83 | 8.0 | 19.3 | 0.00 | 0.61 | 0.00 | 57 | 1000.8 |
| 20260506100703 | 22 | 82 | 8.0 | 19.3 | 0.00 | 0.61 | 0.00 | 56 | 1000.8 |
| 20260506100503 | 22 | 82 | 8.0 | 19.3 | 0.00 | 0.61 | 0.00 | 57 | 1001.0 |
| 20260506100403 | 22 | 78 | 9.7 | 19.3 | 0.00 | 0.61 | 0.00 | 58 | 1000.9 |
| 20260506100317 | 22 | 72 | 9.7 | 19.3 | 0.00 | 0.61 | 0.00 | 58 | 1001.0 |
| 20260506100303 | 21 | 68 | 8.0 | 19.3 | 0.00 | 0.61 | 0.00 | 59 | 1001.1 |
| 20260506100203 | 21 | 58 | 8.0 | 19.3 | 0.00 | 0.61 | 0.00 | 59 | 1001.1 |
| 20260506100003 | 21 | 53 | 6.4 | 14.5 | 0.00 | 0.61 | 0.00 | 57 | 1001.1 |
| 20260506095903 | 21 | 56 | 6.4 | 14.5 | 0.00 | 0.61 | 0.00 | 59 | 1001.1 |
| 20260506095803 | 21 | 54 | 6.4 | 14.5 | 0.00 | 0.61 | 0.00 | 60 | 1001.0 |
| 20260506095703 | 21 | 61 | 6.4 | 14.5 | 0.00 | 0.61 | 0.00 | 59 | 1001.0 |
| 20260506095603 | 21 | 69 | 4.8 | 12.9 | 0.00 | 0.61 | 0.00 | 58 | 1000.8 |
| 20260506095518 | 21 | 78 | 4.8 | 14.5 | 0.00 | 0.61 | 0.00 | 58 | 1000.8 |
| 20260506095503 | 21 | 81 | 4.8 | 14.5 | 0.00 | 0.61 | 0.00 | 58 | 1000.8 |
| 20260506095403 | 21 | 99 | 4.8 | 14.5 | 0.00 | 0.61 | 0.00 | 61 | 1001.3 |
| 20260506095217 | 21 | 119 | 6.4 | 14.5 | 0.00 | 0.61 | 0.00 | 56 | 1001.2 |
| 20260506095203 | 21 | 119 | 6.4 | 14.5 | 0.00 | 0.61 | 0.00 | 56 | 1001.1 |
| 20260506095103 | 21 | 118 | 6.4 | 14.5 | 0.00 | 0.61 | 0.00 | 59 | 1001.1 |
| 20260506095019 | 21 | 117 | 6.4 | 14.5 | 0.00 | 0.61 | 0.00 | 59 | 1001.2 |
| 20260506094903 | 21 | 113 | 6.4 | 14.5 | 0.00 | 0.61 | 0.00 | 58 | 1001.1 |
| 20260506094703 | 21 | 110 | 8.0 | 14.5 | 0.00 | 0.61 | 0.00 | 58 | 1001.1 |
| 20260506094603 | 21 | 102 | 8.0 | 14.5 | 0.00 | 0.61 | 0.00 | 61 | 1001.1 |
| 20260506094503 | 21 | 95 | 8.0 | 16.1 | 0.00 | 0.61 | 0.00 | 59 | 1001.1 |
| 20260506094404 | 21 | 89 | 8.0 | 17.7 | 0.00 | 0.61 | 0.00 | 60 | 1001.1 |
| 20260506094308 | 21 | 83 | 8.0 | 17.7 | 0.00 | 0.61 | 0.00 | 57 | 1001.0 |
| 20260506094203 | 21 | 83 | 8.0 | 17.7 | 0.00 | 0.61 | 0.00 | 59 | 1001.1 |
| 20260506094103 | 21 | 86 | 8.0 | 17.7 | 0.00 | 0.61 | 0.00 | 57 | 1001.1 |
| 20260506094003 | 21 | 90 | 8.0 | 17.7 | 0.00 | 0.61 | 0.00 | 59 | 1001.1 |
| 20260506093903 | 21 | 93 | 8.0 | 17.7 | 0.00 | 0.61 | 0.00 | 59 | 1001.2 |
| 20260506093803 | 21 | 89 | 8.0 | 17.7 | 0.00 | 0.61 | 0.00 | 56 | 1001.1 |
| 20260506093703 | 21 | 90 | 8.0 | 17.7 | 0.00 | 0.61 | 0.00 | 60 | 1001.2 |
| 20260506093604 | 21 | 91 | 8.0 | 17.7 | 0.00 | 0.61 | 0.00 | 57 | 1001.2 |
| 20260506093503 | 21 | 94 | 8.0 | 17.7 | 0.00 | 0.61 | 0.00 | 56 | 1001.3 |
| 20260506093403 | 21 | 92 | 8.0 | 17.7 | 0.00 | 0.61 | 0.00 | 58 | 1001.3 |
| 20260506093303 | 21 | 91 | 8.0 | 17.7 | 0.00 | 0.61 | 0.00 | 61 | 1001.2 |
| 20260506093203 | 21 | 84 | 6.4 | 12.9 | 0.00 | 0.61 | 0.00 | 63 | 1001.2 |
| 20260506093116 | 21 | 78 | 6.4 | 12.9 | 0.00 | 0.61 | 0.00 | 63 | 1001.2 |
| 20260506093103 | 21 | 77 | 6.4 | 12.9 | 0.00 | 0.61 | 0.00 | 63 | 1001.2 |
| 20260506093003 | 21 | 63 | 4.8 | 12.9 | 0.00 | 0.61 | 0.00 | 64 | 1001.2 |
| 20260506092917 | 21 | 50 | 4.8 | 12.9 | 0.00 | 0.61 | 0.00 | 64 | 1001.2 |
| 20260506092814 | 21 | 41 | 4.8 | 14.5 | 0.00 | 0.61 | 0.00 | 66 | 1001.0 |
| 20260506092603 | 20 | 46 | 4.8 | 14.5 | 0.00 | 0.61 | 0.00 | 65 | 1001.1 |
| 20260506092503 | 20 | 45 | 4.8 | 14.5 | 0.00 | 0.61 | 0.00 | 63 | 1001.0 |
| 20260506092418 | 20 | 48 | 4.8 | 14.5 | 0.00 | 0.61 | 0.00 | 62 | 1001.0 |
| 20260506092403 | 20 | 48 | 4.8 | 14.5 | 0.00 | 0.61 | 0.00 | 62 | 1001.0 |
| 20260506092317 | 20 | 50 | 4.8 | 14.5 | 0.00 | 0.61 | 0.00 | 61 | 1001.1 |
| 20260506092306 | 20 | 50 | 4.8 | 14.5 | 0.00 | 0.61 | 0.00 | 61 | 1001.1 |
| 20260506092118 | 20 | 52 | 4.8 | 14.5 | 0.00 | 0.61 | 0.00 | 65 | 1001.1 |
| 20260506092017 | 20 | 53 | 6.4 | 14.5 | 0.00 | 0.61 | 0.00 | 64 | 1001.0 |
| 20260506092003 | 20 | 55 | 6.4 | 14.5 | 0.00 | 0.61 | 0.00 | 64 | 1001.0 |
| 20260506091703 | 20 | 67 | 6.4 | 14.5 | 0.00 | 0.61 | 0.00 | 64 | 1001.1 |
| 20260506091603 | 20 | 73 | 4.8 | 14.5 | 0.00 | 0.61 | 0.00 | 64 | 1001.0 |
| 20260506091504 | 20 | 104 | 8.0 | 14.5 | 0.00 | 0.61 | 0.00 | 66 | 1001.1 |
| 20260506073503 | 15 | 53 | 8.0 | 19.3 | 0.00 | 0.61 | 0.00 | 82 | 1001.2 |
| 20260506073403 | 15 | 49 | 8.0 | 19.3 | 0.00 | 0.61 | 0.00 | 85 | 1001.2 |
| 20260506073318 | 15 | 46 | 8.0 | 19.3 | 0.00 | 0.61 | 0.00 | 82 | 1001.3 |
| 20260506073303 | 15 | 46 | 8.0 | 20.9 | 0.00 | 0.61 | 0.00 | 82 | 1001.5 |
| 20260506073203 | 15 | 43 | 8.0 | 20.9 | 0.00 | 0.61 | 0.00 | 81 | 1001.5 |
| 20260506073018 | 15 | 35 | 8.0 | 20.9 | 0.00 | 0.61 | 0.00 | 80 | 1001.2 |
| 20260506073003 | 15 | 34 | 8.0 | 20.9 | 0.00 | 0.61 | 0.00 | 80 | 1001.3 |
| 20260506072903 | 15 | 39 | 9.7 | 20.9 | 0.00 | 0.61 | 0.00 | 81 | 1001.3 |
| 20260506072718 | 15 | 44 | 9.7 | 20.9 | 0.00 | 0.61 | 0.00 | 81 | 1001.3 |
| 20260506072703 | 15 | 44 | 9.7 | 20.9 | 0.00 | 0.61 | 0.00 | 82 | 1001.4 |
| 20260506072603 | 15 | 48 | 8.0 | 20.9 | 0.00 | 0.61 | 0.00 | 80 | 1001.4 |
| 20260506072403 | 15 | 52 | 8.0 | 20.9 | 0.00 | 0.61 | 0.00 | 82 | 1001.4 |
| 20260506072305 | 15 | 55 | 8.0 | 20.9 | 0.00 | 0.61 | 0.00 | 81 | 1001.4 |
| 20260506072203 | 15 | 53 | 8.0 | 20.9 | 0.00 | 0.61 | 0.00 | 80 | 1001.5 |
| 20260506072117 | 15 | 54 | 8.0 | 19.3 | 0.00 | 0.61 | 0.00 | 80 | 1001.5 |
| 20260506072103 | 15 | 54 | 8.0 | 19.3 | 0.00 | 0.61 | 0.00 | 80 | 1001.5 |
| 20260506072016 | 15 | 57 | 8.0 | 19.3 | 0.00 | 0.61 | 0.00 | 82 | 1001.3 |
| 20260506072003 | 15 | 58 | 8.0 | 19.3 | 0.00 | 0.61 | 0.00 | 82 | 1001.5 |
| 20260506071817 | 15 | 56 | 8.0 | 22.5 | 0.00 | 0.61 | 0.00 | 82 | 1001.3 |
| 20260506071703 | 15 | 58 | 8.0 | 22.5 | 0.00 | 0.61 | 0.00 | 80 | 1001.3 |
| 20260506071503 | 15 | 56 | 8.0 | 22.5 | 0.00 | 0.61 | 0.00 | 82 | 1001.5 |
| 20260506071403 | 15 | 54 | 8.0 | 22.5 | 0.00 | 0.61 | 0.00 | 81 | 1001.5 |
| 20260506071303 | 15 | 52 | 9.7 | 22.5 | 0.00 | 0.61 | 0.00 | 85 | 1001.5 |
| 20260506071203 | 15 | 54 | 9.7 | 22.5 | 0.00 | 0.61 | 0.00 | 83 | 1001.6 |
| 20260506071103 | 15 | 55 | 9.7 | 22.5 | 0.00 | 0.61 | 0.00 | 81 | 1001.7 |
| 20260506071003 | 15 | 55 | 9.7 | 22.5 | 0.00 | 0.61 | 0.00 | 82 | 1001.7 |
| 20260506070903 | 15 | 58 | 9.7 | 22.5 | 0.00 | 0.61 | 0.00 | 82 | 1001.4 |
| 20260506070803 | 15 | 60 | 9.7 | 22.5 | 0.00 | 0.61 | 0.00 | 82 | 1001.4 |
| 20260506070703 | 15 | 62 | 9.7 | 22.5 | 0.00 | 0.61 | 0.00 | 83 | 1001.4 |
| 20260506070603 | 15 | 64 | 9.7 | 19.3 | 0.00 | 0.61 | 0.00 | 83 | 1001.5 |
| 20260506070503 | 15 | 65 | 9.7 | 19.3 | 0.00 | 0.61 | 0.00 | 84 | 1001.5 |
| 20260506070403 | 14 | 68 | 11.3 | 19.3 | 0.00 | 0.61 | 0.00 | 84 | 1001.4 |
| 20260506070303 | 14 | 71 | 11.3 | 19.3 | 0.00 | 0.61 | 0.00 | 85 | 1001.4 |
| 20260506070203 | 14 | 72 | 11.3 | 19.3 | 0.00 | 0.61 | 0.00 | 83 | 1001.4 |
| 20260506070103 | 14 | 71 | 11.3 | 19.3 | 0.00 | 0.61 | 0.00 | 84 | 1001.4 |
| 20260506062503 | 13 | 64 | 9.7 | 22.5 | 0.00 | 0.61 | 0.00 | 87 | 1001.6 |
| 20260506062315 | 13 | 63 | 8.0 | 22.5 | 0.00 | 0.61 | 0.00 | 86 | 1001.7 |
| 20260506062305 | 13 | 61 | 9.7 | 22.5 | 0.00 | 0.61 | 0.00 | 88 | 1001.5 |
| 20260506062203 | 13 | 57 | 9.7 | 22.5 | 0.00 | 0.61 | 0.00 | 88 | 1001.5 |
| 20260506062003 | 13 | 54 | 9.7 | 22.5 | 0.00 | 0.61 | 0.00 | 89 | 1001.5 |
| 20260506061903 | 13 | 52 | 8.0 | 22.5 | 0.00 | 0.61 | 0.00 | 89 | 1001.5 |
| 20260506061816 | 12 | 53 | 9.7 | 22.5 | 0.00 | 0.61 | 0.00 | 88 | 1001.3 |
| 20260506061803 | 12 | 54 | 9.7 | 22.5 | 0.00 | 0.61 | 0.00 | 88 | 1001.6 |
| 20260506061703 | 12 | 49 | 9.7 | 22.5 | 0.00 | 0.61 | 0.00 | 88 | 1001.6 |
| 20260506061503 | 12 | 50 | 9.7 | 17.7 | 0.00 | 0.61 | 0.00 | 89 | 1001.3 |
| 20260506061403 | 12 | 50 | 9.7 | 17.7 | 0.00 | 0.61 | 0.00 | 90 | 1001.3 |
| 20260506061318 | 12 | 51 | 9.7 | 17.7 | 0.00 | 0.61 | 0.00 | 89 | 1001.3 |
| 20260506061303 | 12 | 53 | 9.7 | 19.3 | 0.00 | 0.61 | 0.00 | 89 | 1001.5 |
| 20260506061203 | 12 | 55 | 9.7 | 19.3 | 0.00 | 0.61 | 0.00 | 89 | 1001.5 |
| 20260506061003 | 12 | 55 | 9.7 | 19.3 | 0.00 | 0.61 | 0.00 | 88 | 1001.6 |
| 20260506060916 | 12 | 54 | 9.7 | 19.3 | 0.00 | 0.61 | 0.00 | 89 | 1001.6 |
| 20260506060903 | 12 | 54 | 9.7 | 19.3 | 0.00 | 0.61 | 0.00 | 89 | 1001.6 |
| 20260506060803 | 12 | 53 | 9.7 | 19.3 | 0.00 | 0.61 | 0.00 | 89 | 1001.5 |
| 20260506060603 | 12 | 51 | 9.7 | 19.3 | 0.00 | 0.61 | 0.00 | 89 | 1001.5 |
| 20260506060503 | 12 | 53 | 9.7 | 19.3 | 0.00 | 0.61 | 0.00 | 89 | 1001.5 |
| 20260506060417 | 12 | 51 | 9.7 | 19.3 | 0.00 | 0.61 | 0.00 | 89 | 1001.6 |
| 20260506060403 | 12 | 50 | 9.7 | 19.3 | 0.00 | 0.61 | 0.00 | 89 | 1001.4 |
| 20260506060303 | 12 | 48 | 9.7 | 19.3 | 0.00 | 0.61 | 0.00 | 89 | 1001.4 |
| 20260506051403 | 11 | 42 | 9.7 | 17.7 | 0.00 | 0.61 | 0.00 | 90 | 1001.5 |
| 20260506051303 | 11 | 41 | 9.7 | 17.7 | 0.00 | 0.61 | 0.00 | 90 | 1001.5 |
| 20260506051203 | 11 | 39 | 9.7 | 17.7 | 0.00 | 0.61 | 0.00 | 90 | 1001.5 |
| 20260506051103 | 11 | 42 | 9.7 | 17.7 | 0.00 | 0.61 | 0.00 | 90 | 1001.5 |
| 20260506051017 | 11 | 41 | 9.7 | 17.7 | 0.00 | 0.61 | 0.00 | 90 | 1001.6 |
| 20260506051003 | 11 | 42 | 8.0 | 17.7 | 0.00 | 0.61 | 0.00 | 90 | 1001.6 |
| 20260506050903 | 11 | 41 | 8.0 | 17.7 | 0.00 | 0.61 | 0.00 | 90 | 1001.6 |
| 20260506050703 | 11 | 43 | 8.0 | 17.7 | 0.00 | 0.61 | 0.00 | 89 | 1001.7 |
| 20260506050603 | 11 | 46 | 9.7 | 16.1 | 0.00 | 0.61 | 0.00 | 90 | 1001.6 |
| 20260506050503 | 11 | 48 | 8.0 | 16.1 | 0.00 | 0.61 | 0.00 | 90 | 1001.5 |
| 20260506050403 | 11 | 50 | 8.0 | 16.1 | 0.00 | 0.61 | 0.00 | 90 | 1001.5 |
| 20260506050303 | 11 | 51 | 8.0 | 16.1 | 0.00 | 0.61 | 0.00 | 90 | 1001.4 |
| 20260506050203 | 11 | 52 | 8.0 | 16.1 | 0.00 | 0.61 | 0.00 | 90 | 1001.4 |
| 20260506050103 | 11 | 52 | 8.0 | 16.1 | 0.00 | 0.61 | 0.00 | 90 | 1001.4 |
| 20260506045103 | 11 | 42 | 6.4 | 16.1 | 0.00 | 0.61 | 0.00 | 90 | 1001.6 |
| 20260506045003 | 11 | 41 | 6.4 | 16.1 | 0.00 | 0.61 | 0.00 | 90 | 1001.8 |
| 20260506044919 | 11 | 41 | 6.4 | 16.1 | 0.00 | 0.61 | 0.00 | 90 | 1001.8 |
| 20260506044903 | 11 | 40 | 6.4 | 16.1 | 0.00 | 0.61 | 0.00 | 90 | 1001.8 |
| 20260506044803 | 11 | 36 | 6.4 | 16.1 | 0.00 | 0.61 | 0.00 | 91 | 1001.6 |
| 20260506044603 | 11 | 36 | 6.4 | 16.1 | 0.00 | 0.61 | 0.00 | 91 | 1001.8 |
| 20260506044503 | 10 | 37 | 6.4 | 16.1 | 0.00 | 0.61 | 0.00 | 91 | 1001.7 |
| 20260506044403 | 10 | 38 | 6.4 | 16.1 | 0.00 | 0.61 | 0.00 | 91 | 1001.6 |
| 20260506044319 | 10 | 36 | 6.4 | 16.1 | 0.00 | 0.61 | 0.00 | 91 | 1001.6 |
| 20260506044303 | 10 | 37 | 6.4 | 16.1 | 0.00 | 0.61 | 0.00 | 91 | 1001.6 |
| 20260506044203 | 10 | 36 | 6.4 | 16.1 | 0.00 | 0.61 | 0.00 | 90 | 1001.5 |
| 20260506044003 | 10 | 29 | 8.0 | 24.1 | 0.00 | 0.61 | 0.00 | 91 | 1001.7 |
| 20260506043903 | 10 | 28 | 8.0 | 24.1 | 0.00 | 0.61 | 0.00 | 91 | 1001.5 |
| 20260506043803 | 10 | 26 | 8.0 | 24.1 | 0.00 | 0.61 | 0.00 | 91 | 1001.5 |
| 20260506043719 | 10 | 22 | 8.0 | 24.1 | 0.00 | 0.61 | 0.00 | 91 | 1001.7 |
| 20260506043703 | 10 | 21 | 8.0 | 24.1 | 0.00 | 0.61 | 0.00 | 91 | 1001.5 |
| 20260506043603 | 10 | 16 | 8.0 | 24.1 | 0.00 | 0.61 | 0.00 | 91 | 1001.7 |
| 20260506043403 | 10 | 5 | 8.0 | 24.1 | 0.00 | 0.61 | 0.00 | 91 | 1001.6 |
| 20260506043303 | 10 | 357 | 8.0 | 24.1 | 0.00 | 0.61 | 0.00 | 91 | 1001.5 |
| 20260506043203 | 10 | 352 | 6.4 | 24.1 | 0.00 | 0.61 | 0.00 | 91 | 1001.5 |
| 20260506043103 | 10 | 343 | 6.4 | 24.1 | 0.00 | 0.61 | 0.00 | 91 | 1001.6 |
| 20260506043003 | 10 | 336 | 6.4 | 24.1 | 0.00 | 0.61 | 0.00 | 91 | 1001.6 |
| 20260506042903 | 10 | 323 | 4.8 | 14.5 | 0.00 | 0.61 | 0.00 | 91 | 1001.4 |
| 20260506042803 | 10 | 334 | 4.8 | 9.7 | 0.00 | 0.61 | 0.00 | 91 | 1001.5 |
| 20260506042703 | 10 | 345 | 4.8 | 9.7 | 0.00 | 0.61 | 0.00 | 91 | 1001.5 |
| 20260506042603 | 10 | 352 | 4.8 | 9.7 | 0.00 | 0.61 | 0.00 | 91 | 1001.6 |
| 20260506042503 | 10 | 357 | 4.8 | 9.7 | 0.00 | 0.61 | 0.00 | 91 | 1001.6 |
| 20260506042403 | 10 | 1 | 4.8 | 9.7 | 0.00 | 0.61 | 0.00 | 91 | 1001.6 |
| 20260506042305 | 10 | 4 | 4.8 | 9.7 | 0.00 | 0.61 | 0.00 | 90 | 1001.7 |
| 20260506042203 | 10 | 3 | 4.8 | 9.7 | 0.00 | 0.61 | 0.00 | 90 | 1001.7 |
| 20260506042103 | 10 | 5 | 4.8 | 9.7 | 0.00 | 0.61 | 0.00 | 90 | 1001.6 |
| 20260506042003 | 10 | 5 | 4.8 | 9.7 | 0.00 | 0.61 | 0.00 | 90 | 1001.6 |
| 20260506041903 | 10 | 6 | 4.8 | 9.7 | 0.00 | 0.61 | 0.00 | 91 | 1001.6 |
| 20260506041816 | 10 | 7 | 4.8 | 9.7 | 0.00 | 0.61 | 0.00 | 91 | 1001.6 |
| 20260506041803 | 10 | 7 | 4.8 | 9.7 | 0.00 | 0.61 | 0.00 | 91 | 1001.7 |
| 20260506041703 | 10 | 8 | 4.8 | 9.7 | 0.00 | 0.61 | 0.00 | 91 | 1001.7 |
| 20260506041503 | 10 | 13 | 4.8 | 8.0 | 0.00 | 0.61 | 0.00 | 91 | 1001.7 |
| 20260506041418 | 10 | 12 | 4.8 | 8.0 | 0.00 | 0.61 | 0.00 | 91 | 1001.7 |
| 20260506041403 | 10 | 13 | 4.8 | 8.0 | 0.00 | 0.61 | 0.00 | 91 | 1001.7 |
| 20260506041317 | 10 | 12 | 3.2 | 6.4 | 0.00 | 0.61 | 0.00 | 91 | 1001.8 |
| 20260506041303 | 10 | 12 | 3.2 | 6.4 | 0.00 | 0.61 | 0.00 | 91 | 1001.8 |
| 20260506041003 | 10 | 17 | 3.2 | 6.4 | 0.00 | 0.61 | 0.00 | 91 | 1002.0 |
| 20260506040903 | 10 | 17 | 3.2 | 8.0 | 0.00 | 0.61 | 0.00 | 91 | 1002.0 |
| 20260506040803 | 10 | 18 | 3.2 | 8.0 | 0.00 | 0.61 | 0.00 | 91 | 1001.9 |
| 20260506040703 | 10 | 19 | 3.2 | 8.0 | 0.00 | 0.61 | 0.00 | 91 | 1001.9 |
| 20260506040603 | 10 | 19 | 3.2 | 8.0 | 0.00 | 0.61 | 0.00 | 91 | 1001.9 |
| 20260506040503 | 10 | 20 | 3.2 | 9.7 | 0.00 | 0.61 | 0.00 | 91 | 1001.7 |
| 20260506040422 | 10 | 21 | 3.2 | 9.7 | 0.00 | 0.61 | 0.00 | 91 | 1001.7 |
| 20260506040403 | 10 | 20 | 3.2 | 9.7 | 0.00 | 0.61 | 0.00 | 91 | 1001.7 |
| 20260506040303 | 10 | 23 | 3.2 | 9.7 | 0.00 | 0.61 | 0.00 | 91 | 1001.7 |
| 20260506040116 | 10 | 25 | 3.2 | 9.7 | 0.00 | 0.61 | 0.00 | 91 | 1001.9 |
| 20260506040003 | 10 | 25 | 4.8 | 9.7 | 0.00 | 0.61 | 0.00 | 91 | 1001.6 |
| 20260506035803 | 10 | 28 | 4.8 | 9.7 | 0.00 | 0.61 | 0.00 | 91 | 1001.9 |
| 20260506035703 | 10 | 29 | 4.8 | 9.7 | 0.00 | 0.61 | 0.00 | 91 | 1001.9 |
| 20260506035617 | 10 | 27 | 4.8 | 9.7 | 0.00 | 0.61 | 0.00 | 91 | 1001.9 |
| 20260506035603 | 10 | 28 | 4.8 | 9.7 | 0.00 | 0.61 | 0.00 | 91 | 1001.9 |
| 20260506035503 | 10 | 29 | 4.8 | 9.7 | 0.00 | 0.61 | 0.00 | 91 | 1001.9 |
| 20260506035305 | 10 | 29 | 4.8 | 11.3 | 0.00 | 0.61 | 0.00 | 91 | 1001.6 |
| 20260506035206 | 10 | 29 | 4.8 | 11.3 | 0.00 | 0.61 | 0.00 | 92 | 1001.8 |
| 20260506035003 | 10 | 27 | 4.8 | 11.3 | 0.00 | 0.61 | 0.00 | 92 | 1001.8 |
| 20260506034903 | 10 | 26 | 4.8 | 11.3 | 0.00 | 0.61 | 0.00 | 92 | 1001.7 |
| 20260506034803 | 10 | 25 | 4.8 | 11.3 | 0.00 | 0.61 | 0.00 | 92 | 1001.7 |
| 20260506034703 | 10 | 25 | 4.8 | 11.3 | 0.00 | 0.61 | 0.00 | 92 | 1001.7 |
| 20260506034603 | 10 | 27 | 4.8 | 11.3 | 0.00 | 0.61 | 0.00 | 92 | 1001.7 |
| 20260506034503 | 10 | 27 | 4.8 | 11.3 | 0.00 | 0.61 | 0.00 | 92 | 1001.8 |
| 20260506034416 | 10 | 27 | 4.8 | 11.3 | 0.00 | 0.61 | 0.00 | 92 | 1001.7 |
| 20260506034403 | 10 | 27 | 4.8 | 11.3 | 0.00 | 0.61 | 0.00 | 92 | 1001.8 |
| 20260506034303 | 10 | 27 | 4.8 | 11.3 | 0.00 | 0.61 | 0.00 | 92 | 1001.8 |
| 20260506034217 | 10 | 27 | 4.8 | 11.3 | 0.00 | 0.61 | 0.00 | 92 | 1002.0 |
| 20260506034103 | 10 | 27 | 4.8 | 9.7 | 0.00 | 0.61 | 0.00 | 92 | 1001.7 |
| 20260506033903 | 10 | 31 | 4.8 | 8.0 | 0.00 | 0.61 | 0.00 | 93 | 1001.8 |
| 20260506033820 | 10 | 32 | 4.8 | 8.0 | 0.00 | 0.61 | 0.00 | 93 | 1001.8 |
| 20260506033803 | 10 | 33 | 4.8 | 8.0 | 0.00 | 0.61 | 0.00 | 93 | 1001.8 |
| 20260506033703 | 10 | 32 | 3.2 | 8.0 | 0.00 | 0.61 | 0.00 | 93 | 1001.8 |
| 20260506033503 | 10 | 28 | 3.2 | 8.0 | 0.00 | 0.61 | 0.00 | 93 | 1001.9 |
| 20260506033403 | 10 | 27 | 3.2 | 8.0 | 0.00 | 0.61 | 0.00 | 93 | 1001.8 |
| 20260506033303 | 10 | 25 | 3.2 | 8.0 | 0.00 | 0.61 | 0.00 | 93 | 1001.8 |
| 20260506033203 | 10 | 27 | 3.2 | 8.0 | 0.00 | 0.61 | 0.00 | 93 | 1001.9 |
| 20260506033103 | 10 | 28 | 3.2 | 8.0 | 0.00 | 0.61 | 0.00 | 93 | 1001.9 |
| 20260506033016 | 10 | 27 | 3.2 | 6.4 | 0.00 | 0.61 | 0.00 | 93 | 1001.8 |
| 20260506033004 | 10 | 28 | 3.2 | 6.4 | 0.00 | 0.61 | 0.00 | 93 | 1001.8 |
| 20260506032919 | 10 | 28 | 3.2 | 6.4 | 0.00 | 0.61 | 0.00 | 93 | 1001.7 |
| 20260506032903 | 10 | 27 | 3.2 | 6.4 | 0.00 | 0.61 | 0.00 | 93 | 1001.9 |
| 20260506032818 | 10 | 27 | 3.2 | 6.4 | 0.00 | 0.61 | 0.00 | 93 | 1001.9 |
| 20260506032619 | 10 | 22 | 3.2 | 6.4 | 0.00 | 0.61 | 0.00 | 93 | 1001.8 |
| 20260506032503 | 10 | 24 | 3.2 | 6.4 | 0.00 | 0.61 | 0.00 | 94 | 1001.8 |
| 20260506032318 | 10 | 24 | 3.2 | 6.4 | 0.00 | 0.61 | 0.00 | 94 | 1002.0 |
| 20260506032305 | 10 | 25 | 3.2 | 6.4 | 0.00 | 0.61 | 0.00 | 94 | 1002.0 |
| 20260506032203 | 10 | 22 | 3.2 | 6.4 | 0.00 | 0.61 | 0.00 | 93 | 1001.9 |
| 20260506032018 | 10 | 20 | 3.2 | 4.8 | 0.00 | 0.61 | 0.00 | 93 | 1001.8 |
| 20260506032003 | 10 | 20 | 3.2 | 4.8 | 0.00 | 0.61 | 0.00 | 93 | 1001.7 |
| 20260506031903 | 10 | 19 | 3.2 | 6.4 | 0.00 | 0.61 | 0.00 | 93 | 1001.7 |
| 20260506031703 | 10 | 16 | 3.2 | 9.7 | 0.00 | 0.61 | 0.00 | 93 | 1001.7 |
| 20260506031617 | 10 | 16 | 3.2 | 9.7 | 0.00 | 0.61 | 0.00 | 93 | 1001.7 |
| 20260506031603 | 10 | 16 | 3.2 | 9.7 | 0.00 | 0.61 | 0.00 | 93 | 1001.7 |
| 20260506031503 | 10 | 15 | 3.2 | 9.7 | 0.00 | 0.61 | 0.00 | 93 | 1001.9 |
| 20260506031303 | 10 | 13 | 3.2 | 9.7 | 0.00 | 0.61 | 0.00 | 93 | 1001.7 |
| 20260506031203 | 10 | 15 | 3.2 | 9.7 | 0.00 | 0.61 | 0.00 | 93 | 1001.7 |
| 20260506031103 | 10 | 15 | 3.2 | 9.7 | 0.00 | 0.61 | 0.00 | 93 | 1001.7 |
| 20260506031003 | 9 | 18 | 3.2 | 9.7 | 0.00 | 0.61 | 0.00 | 93 | 1001.6 |
| 20260506030903 | 10 | 18 | 3.2 | 9.7 | 0.00 | 0.61 | 0.00 | 93 | 1001.6 |
| 20260506030803 | 10 | 19 | 3.2 | 9.7 | 0.00 | 0.61 | 0.00 | 93 | 1001.7 |
| 20260506030703 | 10 | 25 | 3.2 | 6.4 | 0.00 | 0.61 | 0.00 | 93 | 1001.7 |
| 20260506030603 | 10 | 27 | 3.2 | 6.4 | 0.00 | 0.61 | 0.00 | 93 | 1001.6 |
| 20260506030503 | 10 | 27 | 3.2 | 6.4 | 0.00 | 0.61 | 0.00 | 93 | 1001.9 |
| 20260506030403 | 9 | 30 | 3.2 | 6.4 | 0.00 | 0.61 | 0.00 | 93 | 1001.9 |
| 20260506030303 | 9 | 31 | 3.2 | 6.4 | 0.00 | 0.61 | 0.00 | 93 | 1001.8 |
| 20260506030203 | 9 | 34 | 3.2 | 6.4 | 0.00 | 0.61 | 0.00 | 93 | 1001.6 |
| 20260506030103 | 9 | 36 | 3.2 | 6.4 | 0.00 | 0.61 | 0.00 | 93 | 1001.8 |
| 20260506030003 | 10 | 39 | 3.2 | 6.4 | 0.00 | 0.61 | 0.00 | 93 | 1001.7 |
| 20260506025903 | 9 | 45 | 3.2 | 6.4 | 0.00 | 0.61 | 0.00 | 93 | 1001.7 |
| 20260506025803 | 10 | 46 | 3.2 | 9.7 | 0.00 | 0.61 | 0.00 | 93 | 1001.6 |
| 20260506025703 | 10 | 44 | 3.2 | 9.7 | 0.00 | 0.61 | 0.00 | 93 | 1001.6 |
| 20260506025603 | 10 | 42 | 3.2 | 9.7 | 0.00 | 0.61 | 0.00 | 93 | 1001.4 |
| 20260506025418 | 10 | 38 | 4.8 | 9.7 | 0.00 | 0.61 | 0.00 | 92 | 1001.7 |
| 20260506025403 | 10 | 37 | 4.8 | 9.7 | 0.00 | 0.61 | 0.00 | 92 | 1001.7 |
| 20260506025305 | 10 | 34 | 4.8 | 9.7 | 0.00 | 0.61 | 0.00 | 92 | 1001.6 |
| 20260506025219 | 10 | 32 | 4.8 | 9.7 | 0.00 | 0.61 | 0.00 | 92 | 1001.6 |
| 20260506025103 | 10 | 30 | 4.8 | 9.7 | 0.00 | 0.61 | 0.00 | 92 | 1001.6 |
| 20260506024903 | 10 | 24 | 4.8 | 11.3 | 0.00 | 0.61 | 0.00 | 92 | 1001.6 |
| 20260506024803 | 10 | 22 | 4.8 | 11.3 | 0.00 | 0.61 | 0.00 | 92 | 1001.4 |
| 20260506024703 | 10 | 19 | 4.8 | 11.3 | 0.00 | 0.61 | 0.00 | 92 | 1001.4 |
| 20260506024603 | 10 | 19 | 4.8 | 11.3 | 0.00 | 0.61 | 0.00 | 92 | 1001.2 |
| 20260506024503 | 10 | 21 | 4.8 | 11.3 | 0.00 | 0.61 | 0.00 | 92 | 1001.3 |
| 20260506024403 | 10 | 19 | 4.8 | 11.3 | 0.00 | 0.61 | 0.00 | 92 | 1001.3 |
| 20260506024303 | 10 | 22 | 4.8 | 11.3 | 0.00 | 0.61 | 0.00 | 93 | 1001.3 |
| 20260506024103 | 10 | 19 | 4.8 | 11.3 | 0.00 | 0.61 | 0.00 | 93 | 1001.3 |
| 20260506024003 | 10 | 18 | 4.8 | 11.3 | 0.00 | 0.61 | 0.00 | 92 | 1001.5 |
| 20260506023903 | 10 | 19 | 4.8 | 11.3 | 0.00 | 0.61 | 0.00 | 92 | 1001.5 |
| 20260506023803 | 10 | 20 | 4.8 | 9.7 | 0.00 | 0.61 | 0.00 | 92 | 1001.4 |
| 20260506023603 | 10 | 20 | 4.8 | 9.7 | 0.00 | 0.61 | 0.00 | 93 | 1001.2 |
| 20260506023519 | 10 | 20 | 4.8 | 9.7 | 0.00 | 0.61 | 0.00 | 93 | 1001.2 |
| 20260506023503 | 10 | 19 | 4.8 | 9.7 | 0.00 | 0.61 | 0.00 | 93 | 1001.2 |
| 20260506023316 | 10 | 21 | 4.8 | 9.7 | 0.00 | 0.61 | 0.00 | 93 | 1001.3 |
| 20260506023203 | 10 | 19 | 4.8 | 9.7 | 0.00 | 0.61 | 0.00 | 93 | 1001.3 |
| 20260506023003 | 10 | 15 | 4.8 | 9.7 | 0.00 | 0.61 | 0.00 | 93 | 1001.4 |
| 20260506022903 | 10 | 14 | 4.8 | 9.7 | 0.00 | 0.61 | 0.00 | 93 | 1001.4 |
| 20260506022703 | 10 | 13 | 4.8 | 9.7 | 0.00 | 0.61 | 0.00 | 93 | 1001.5 |
| 20260506022603 | 10 | 14 | 4.8 | 9.7 | 0.00 | 0.61 | 0.00 | 92 | 1001.5 |
| 20260506022503 | 10 | 12 | 4.8 | 9.7 | 0.00 | 0.61 | 0.00 | 93 | 1001.5 |
| 20260506022403 | 10 | 11 | 4.8 | 9.7 | 0.00 | 0.61 | 0.00 | 92 | 1001.5 |
| 20260506022305 | 10 | 9 | 4.8 | 9.7 | 0.00 | 0.61 | 0.00 | 93 | 1001.7 |
| 20260506022103 | 10 | 14 | 3.2 | 8.0 | 0.00 | 0.61 | 0.00 | 93 | 1001.5 |
| 20260506022003 | 10 | 17 | 3.2 | 8.0 | 0.00 | 0.61 | 0.00 | 93 | 1001.5 |
| 20260506021903 | 10 | 18 | 3.2 | 9.7 | 0.00 | 0.61 | 0.00 | 93 | 1001.7 |
| 20260506021803 | 10 | 17 | 3.2 | 9.7 | 0.00 | 0.61 | 0.00 | 92 | 1001.7 |
| 20260506021703 | 10 | 16 | 3.2 | 9.7 | 0.00 | 0.61 | 0.00 | 92 | 1001.6 |
| 20260506021503 | 10 | 17 | 3.2 | 9.7 | 0.00 | 0.61 | 0.00 | 92 | 1001.5 |
| 20260506021403 | 10 | 20 | 3.2 | 9.7 | 0.00 | 0.61 | 0.00 | 92 | 1001.5 |
| 20260506021303 | 10 | 21 | 3.2 | 9.7 | 0.00 | 0.61 | 0.00 | 92 | 1001.5 |
| 20260506021203 | 10 | 20 | 3.2 | 9.7 | 0.00 | 0.61 | 0.00 | 92 | 1001.8 |
| 20260506021016 | 10 | 23 | 3.2 | 9.7 | 0.00 | 0.61 | 0.00 | 92 | 1001.6 |
| 20260506021003 | 10 | 22 | 3.2 | 9.7 | 0.00 | 0.61 | 0.00 | 92 | 1001.6 |
| 20260506020903 | 10 | 24 | 4.8 | 9.7 | 0.00 | 0.61 | 0.00 | 92 | 1001.6 |
| 20260506020703 | 10 | 29 | 3.2 | 8.0 | 0.00 | 0.61 | 0.00 | 92 | 1001.6 |
| 20260506020603 | 10 | 30 | 3.2 | 8.0 | 0.00 | 0.61 | 0.00 | 92 | 1001.6 |
| 20260506020503 | 10 | 32 | 3.2 | 8.0 | 0.00 | 0.61 | 0.00 | 92 | 1001.6 |
| 20260506020403 | 10 | 31 | 4.8 | 8.0 | 0.00 | 0.61 | 0.00 | 92 | 1001.7 |
| 20260506020303 | 10 | 31 | 4.8 | 8.0 | 0.00 | 0.61 | 0.00 | 92 | 1001.6 |
| 20260506020203 | 10 | 31 | 4.8 | 8.0 | 0.00 | 0.61 | 0.00 | 92 | 1001.6 |
| 20260506020103 | 10 | 32 | 4.8 | 8.0 | 0.00 | 0.61 | 0.00 | 92 | 1001.7 |
| 20260506020003 | 10 | 32 | 4.8 | 8.0 | 0.00 | 0.61 | 0.00 | 92 | 1001.7 |
| 20260506015903 | 10 | 32 | 4.8 | 8.0 | 0.00 | 0.61 | 0.00 | 91 | 1001.7 |
| 20260506015819 | 10 | 30 | 4.8 | 8.0 | 0.00 | 0.61 | 0.00 | 91 | 1001.5 |
| 20260506015803 | 10 | 29 | 4.8 | 8.0 | 0.00 | 0.61 | 0.00 | 91 | 1001.7 |
| 20260506015703 | 10 | 32 | 3.2 | 9.7 | 0.00 | 0.61 | 0.00 | 91 | 1001.7 |
| 20260506015503 | 10 | 27 | 4.8 | 9.7 | 0.00 | 0.61 | 0.00 | 91 | 1001.7 |
| 20260506015403 | 10 | 25 | 4.8 | 9.7 | 0.00 | 0.61 | 0.00 | 91 | 1001.4 |
| 20260506015305 | 10 | 26 | 4.8 | 9.7 | 0.00 | 0.61 | 0.00 | 91 | 1001.4 |
| 20260506015203 | 10 | 28 | 4.8 | 9.7 | 0.00 | 0.61 | 0.00 | 91 | 1001.6 |
| 20260506015103 | 10 | 26 | 4.8 | 9.7 | 0.00 | 0.61 | 0.00 | 91 | 1001.6 |
| 20260506015003 | 10 | 23 | 4.8 | 9.7 | 0.00 | 0.61 | 0.00 | 91 | 1001.3 |
| 20260506014903 | 11 | 24 | 4.8 | 9.7 | 0.00 | 0.61 | 0.00 | 91 | 1001.4 |
| 20260506014803 | 11 | 23 | 4.8 | 14.5 | 0.00 | 0.61 | 0.00 | 91 | 1001.4 |
| 20260506014703 | 11 | 21 | 4.8 | 16.1 | 0.00 | 0.61 | 0.00 | 91 | 1001.4 |
| 20260506014603 | 11 | 21 | 4.8 | 16.1 | 0.00 | 0.61 | 0.00 | 91 | 1001.6 |
| 20260506014503 | 11 | 18 | 4.8 | 16.1 | 0.00 | 0.61 | 0.00 | 91 | 1001.6 |
| 20260506014403 | 11 | 19 | 4.8 | 16.1 | 0.00 | 0.61 | 0.00 | 91 | 1001.5 |
| 20260506014303 | 11 | 16 | 4.8 | 16.1 | 0.00 | 0.61 | 0.00 | 91 | 1001.5 |
| 20260506014203 | 11 | 16 | 4.8 | 16.1 | 0.00 | 0.61 | 0.00 | 91 | 1001.4 |
| 20260506014103 | 11 | 16 | 4.8 | 16.1 | 0.00 | 0.61 | 0.00 | 91 | 1001.4 |
| 20260506014003 | 11 | 17 | 4.8 | 16.1 | 0.00 | 0.61 | 0.00 | 91 | 1001.5 |
| 20260506013903 | 11 | 18 | 4.8 | 16.1 | 0.00 | 0.61 | 0.00 | 91 | 1001.5 |
| 20260506013803 | 11 | 17 | 6.4 | 16.1 | 0.00 | 0.61 | 0.00 | 91 | 1001.5 |
| 20260506013703 | 11 | 15 | 6.4 | 16.1 | 0.00 | 0.61 | 0.00 | 91 | 1001.5 |
| 20260506013603 | 11 | 16 | 6.4 | 16.1 | 0.00 | 0.61 | 0.00 | 92 | 1001.2 |
| 20260506013503 | 11 | 18 | 6.4 | 12.9 | 0.00 | 0.61 | 0.00 | 92 | 1001.4 |
| 20260506013417 | 11 | 19 | 6.4 | 12.9 | 0.00 | 0.61 | 0.00 | 92 | 1001.4 |
| 20260506013403 | 11 | 19 | 6.4 | 14.5 | 0.00 | 0.61 | 0.00 | 91 | 1001.4 |
| 20260506013303 | 11 | 22 | 6.4 | 14.5 | 0.00 | 0.61 | 0.00 | 91 | 1001.4 |
| 20260506013103 | 11 | 21 | 6.4 | 19.3 | 0.00 | 0.61 | 0.00 | 92 | 1001.5 |
| 20260506013016 | 11 | 20 | 6.4 | 19.3 | 0.00 | 0.61 | 0.00 | 91 | 1001.2 |
| 20260506013003 | 11 | 20 | 6.4 | 19.3 | 0.00 | 0.61 | 0.00 | 91 | 1001.4 |
| 20260506012918 | 11 | 20 | 6.4 | 19.3 | 0.00 | 0.61 | 0.00 | 92 | 1001.4 |
| 20260506012903 | 11 | 20 | 6.4 | 19.3 | 0.00 | 0.61 | 0.00 | 92 | 1001.3 |
| 20260506012603 | 11 | 23 | 6.4 | 19.3 | 0.00 | 0.61 | 0.00 | 92 | 1001.4 |
| 20260506012503 | 11 | 23 | 6.4 | 19.3 | 0.00 | 0.61 | 0.00 | 92 | 1001.3 |
| 20260506012403 | 11 | 21 | 6.4 | 19.3 | 0.00 | 0.61 | 0.00 | 92 | 1001.4 |
| 20260506012318 | 11 | 20 | 6.4 | 19.3 | 0.00 | 0.61 | 0.00 | 92 | 1001.4 |
| 20260506012307 | 11 | 21 | 6.4 | 19.3 | 0.00 | 0.61 | 0.00 | 92 | 1001.4 |
| 20260506012203 | 11 | 22 | 6.4 | 19.3 | 0.00 | 0.61 | 0.00 | 92 | 1001.5 |
| 20260506012003 | 11 | 19 | 6.4 | 12.9 | 0.00 | 0.61 | 0.00 | 92 | 1001.4 |
| 20260506011903 | 11 | 18 | 6.4 | 12.9 | 0.00 | 0.61 | 0.00 | 92 | 1001.5 |
| 20260506011803 | 11 | 19 | 6.4 | 12.9 | 0.00 | 0.61 | 0.00 | 92 | 1001.5 |
| 20260506011703 | 11 | 17 | 6.4 | 12.9 | 0.00 | 0.61 | 0.00 | 92 | 1001.4 |
| 20260506011616 | 11 | 15 | 6.4 | 12.9 | 0.00 | 0.61 | 0.00 | 92 | 1001.4 |
| 20260506011603 | 11 | 14 | 6.4 | 12.9 | 0.00 | 0.61 | 0.00 | 92 | 1001.4 |
| 20260506011504 | 11 | 14 | 6.4 | 12.9 | 0.00 | 0.61 | 0.00 | 92 | 1001.7 |
| 20260506011303 | 11 | 13 | 6.4 | 12.9 | 0.00 | 0.61 | 0.00 | 92 | 1001.3 |
| 20260506011203 | 11 | 11 | 6.4 | 12.9 | 0.00 | 0.61 | 0.00 | 93 | 1001.5 |
| 20260506011103 | 11 | 12 | 6.4 | 12.9 | 0.00 | 0.61 | 0.00 | 93 | 1001.5 |
| 20260506011003 | 11 | 12 | 4.8 | 12.9 | 0.00 | 0.61 | 0.00 | 93 | 1001.5 |
| 20260506010903 | 11 | 13 | 4.8 | 12.9 | 0.00 | 0.61 | 0.00 | 93 | 1001.6 |
| 20260506010803 | 11 | 12 | 6.4 | 12.9 | 0.00 | 0.61 | 0.00 | 93 | 1001.6 |
| 20260506010703 | 11 | 17 | 6.4 | 12.9 | 0.00 | 0.61 | 0.00 | 93 | 1001.4 |
| 20260506010603 | 11 | 20 | 6.4 | 12.9 | 0.00 | 0.61 | 0.00 | 94 | 1001.5 |
| 20260506010516 | 11 | 20 | 6.4 | 12.9 | 0.00 | 0.61 | 0.00 | 94 | 1001.5 |
| 20260506010503 | 11 | 20 | 4.8 | 14.5 | 0.00 | 0.61 | 0.00 | 94 | 1001.5 |
| 20260506010403 | 11 | 22 | 4.8 | 14.5 | 0.00 | 0.61 | 0.00 | 94 | 1001.5 |
| 20260506010203 | 11 | 22 | 6.4 | 14.5 | 0.00 | 0.61 | 0.00 | 94 | 1001.5 |
| 20260506010119 | 11 | 21 | 6.4 | 14.5 | 0.00 | 0.61 | 0.00 | 94 | 1001.5 |
| 20260506010103 | 11 | 20 | 6.4 | 14.5 | 0.00 | 0.61 | 0.00 | 94 | 1001.3 |
| 20260506010017 | 11 | 18 | 6.4 | 14.5 | 0.00 | 0.61 | 0.00 | 94 | 1001.3 |
| 20260506010003 | 11 | 19 | 6.4 | 14.5 | 0.00 | 0.61 | 0.00 | 94 | 1001.3 |
| 20260506005703 | 11 | 19 | 6.4 | 14.5 | 0.00 | 0.61 | 0.00 | 95 | 1001.3 |
| 20260506005603 | 11 | 17 | 6.4 | 14.5 | 0.00 | 0.61 | 0.00 | 95 | 1001.3 |
| 20260506005503 | 11 | 17 | 6.4 | 14.5 | 0.00 | 0.61 | 0.00 | 95 | 1001.4 |
| 20260506005403 | 11 | 16 | 6.4 | 14.5 | 0.00 | 0.61 | 0.00 | 95 | 1001.4 |
| 20260506005305 | 11 | 14 | 6.4 | 12.9 | 0.00 | 0.61 | 0.00 | 95 | 1001.2 |
| 20260506005203 | 11 | 17 | 4.8 | 12.9 | 0.00 | 0.61 | 0.00 | 95 | 1001.6 |
| 20260506005103 | 11 | 17 | 4.8 | 12.9 | 0.00 | 0.61 | 0.00 | 95 | 1001.6 |
| 20260506005019 | 11 | 18 | 4.8 | 12.9 | 0.00 | 0.61 | 0.00 | 95 | 1001.6 |
| 20260506005003 | 11 | 18 | 4.8 | 12.9 | 0.00 | 0.61 | 0.00 | 95 | 1001.4 |
| 20260506004903 | 11 | 18 | 4.8 | 12.9 | 0.00 | 0.61 | 0.00 | 95 | 1001.4 |
| 20260506004703 | 11 | 16 | 4.8 | 12.9 | 0.00 | 0.61 | 0.00 | 95 | 1001.5 |
| 20260506004603 | 11 | 17 | 4.8 | 11.3 | 0.00 | 0.61 | 0.00 | 95 | 1001.6 |
| 20260506004504 | 12 | 16 | 4.8 | 11.3 | 0.00 | 0.61 | 0.00 | 95 | 1001.4 |
| 20260506004403 | 12 | 16 | 4.8 | 11.3 | 0.00 | 0.61 | 0.00 | 95 | 1001.4 |
| 20260506004303 | 12 | 14 | 4.8 | 11.3 | 0.00 | 0.61 | 0.00 | 96 | 1001.4 |
| 20260506004203 | 12 | 14 | 4.8 | 12.9 | 0.00 | 0.61 | 0.00 | 96 | 1001.4 |
| 20260506004103 | 12 | 15 | 6.4 | 12.9 | 0.00 | 0.61 | 0.00 | 96 | 1001.5 |
| 20260506004003 | 12 | 14 | 6.4 | 12.9 | 0.00 | 0.61 | 0.00 | 96 | 1001.5 |
| 20260506003916 | 12 | 12 | 6.4 | 12.9 | 0.00 | 0.61 | 0.00 | 96 | 1001.4 |
| 20260506003903 | 12 | 12 | 6.4 | 12.9 | 0.00 | 0.61 | 0.00 | 96 | 1001.5 |
| 20260506003803 | 12 | 13 | 6.4 | 12.9 | 0.00 | 0.61 | 0.00 | 96 | 1001.5 |
| 20260506003603 | 12 | 11 | 6.4 | 12.9 | 0.00 | 0.61 | 0.00 | 96 | 1001.4 |
| 20260506003503 | 12 | 10 | 6.4 | 12.9 | 0.00 | 0.61 | 0.00 | 96 | 1001.5 |
| 20260506003303 | 12 | 10 | 6.4 | 12.9 | 0.00 | 0.61 | 0.00 | 96 | 1001.4 |
| 20260506003203 | 12 | 8 | 6.4 | 12.9 | 0.00 | 0.61 | 0.00 | 96 | 1001.4 |
| 20260506003103 | 12 | 7 | 6.4 | 12.9 | 0.00 | 0.61 | 0.00 | 96 | 1001.4 |
| 20260506003003 | 12 | 6 | 4.8 | 12.9 | 0.00 | 0.61 | 0.00 | 96 | 1001.6 |
| 20260506002918 | 12 | 7 | 6.4 | 12.9 | 0.00 | 0.61 | 0.00 | 96 | 1001.3 |
| 20260506002816 | 12 | 5 | 6.4 | 12.9 | 0.00 | 0.61 | 0.00 | 96 | 1001.5 |
| 20260506002803 | 12 | 4 | 6.4 | 12.9 | 0.00 | 0.61 | 0.00 | 96 | 1001.5 |
| 20260506002516 | 12 | 2 | 6.4 | 12.9 | 0.00 | 0.61 | 0.00 | 96 | 1001.4 |
| 20260506002503 | 12 | 2 | 6.4 | 12.9 | 0.00 | 0.61 | 0.00 | 96 | 1001.3 |
| 20260506002403 | 12 | 2 | 6.4 | 12.9 | 0.00 | 0.61 | 0.00 | 96 | 1001.3 |
| 20260506002203 | 12 | 3 | 4.8 | 12.9 | 0.00 | 0.61 | 0.00 | 96 | 1001.5 |
| 20260506002103 | 12 | 3 | 4.8 | 12.9 | 0.00 | 0.61 | 0.00 | 96 | 1001.5 |
| 20260506002003 | 12 | 3 | 4.8 | 12.9 | 0.00 | 0.61 | 0.00 | 96 | 1001.4 |
| 20260506001903 | 12 | 4 | 4.8 | 9.7 | 0.00 | 0.61 | 0.00 | 96 | 1001.4 |
| 20260506001803 | 12 | 4 | 3.2 | 9.7 | 0.00 | 0.61 | 0.00 | 96 | 1001.5 |
| 20260506001703 | 12 | 2 | 3.2 | 9.7 | 0.00 | 0.61 | 0.00 | 96 | 1001.3 |
| 20260506001603 | 12 | 1 | 3.2 | 9.7 | 0.00 | 0.61 | 0.00 | 96 | 1001.3 |
| 20260506001503 | 12 | 1 | 3.2 | 12.9 | 0.00 | 0.61 | 0.00 | 96 | 1001.4 |
| 20260506001403 | 12 | 358 | 4.8 | 12.9 | 0.00 | 0.61 | 0.00 | 97 | 1001.4 |
| 20260506001303 | 12 | 356 | 4.8 | 12.9 | 0.00 | 0.61 | 0.00 | 97 | 1001.4 |
| 20260506001218 | 12 | 357 | 4.8 | 12.9 | 0.00 | 0.61 | 0.00 | 97 | 1001.5 |
| 20260506001203 | 12 | 357 | 4.8 | 12.9 | 0.00 | 0.61 | 0.00 | 97 | 1001.4 |
| 20260506000903 | 12 | 356 | 6.4 | 12.9 | 0.00 | 0.61 | 0.00 | 97 | 1001.5 |
| 20260506000803 | 12 | 355 | 6.4 | 12.9 | 0.00 | 0.61 | 0.00 | 97 | 1001.3 |
| 20260506000703 | 12 | 357 | 6.4 | 12.9 | 0.00 | 0.61 | 0.00 | 97 | 1001.4 |
| 20260506000603 | 12 | 358 | 6.4 | 12.9 | 0.00 | 0.61 | 0.00 | 97 | 1001.4 |
| 20260506000503 | 12 | 357 | 6.4 | 12.9 | 0.00 | 0.61 | 0.00 | 97 | 1001.4 |
| 20260506000403 | 12 | 360 | 6.4 | 12.9 | 0.00 | 0.61 | 0.00 | 97 | 1001.5 |
| 20260506000303 | 12 | 360 | 6.4 | 12.9 | 0.00 | 0.61 | 0.00 | 97 | 1001.5 |
| 20260506000204 | 12 | 358 | 6.4 | 12.9 | 0.00 | 0.61 | 0.00 | 97 | 1001.2 |
| 20260506000004 | 12 | 359 | 6.4 | 12.9 | 0.00 | 0.61 | 0.00 | 97 | 1001.4 |
| 20260505235903 | 12 | 360 | 6.4 | 12.9 | 0.00 | 0.61 | 0.61 | 97 | 1001.3 |
| 20260505235803 | 12 | 1 | 4.8 | 12.9 | 0.00 | 0.61 | 0.61 | 97 | 1001.4 |
| 20260505235703 | 12 | 2 | 4.8 | 12.9 | 0.00 | 0.61 | 0.61 | 97 | 1001.4 |
| 20260505235603 | 12 | 2 | 4.8 | 12.9 | 0.00 | 0.61 | 0.61 | 97 | 1001.5 |
| 20260505235503 | 12 | 4 | 4.8 | 12.9 | 0.00 | 0.61 | 0.61 | 97 | 1001.5 |
| 20260505235403 | 12 | 4 | 4.8 | 14.5 | 0.00 | 0.61 | 0.61 | 97 | 1001.4 |
| 20260505235305 | 12 | 5 | 4.8 | 14.5 | 0.00 | 0.61 | 0.61 | 97 | 1001.4 |
| 20260505235203 | 12 | 7 | 4.8 | 14.5 | 0.00 | 0.61 | 0.61 | 97 | 1001.4 |
| 20260505235103 | 12 | 6 | 4.8 | 14.5 | 0.00 | 0.61 | 0.61 | 97 | 1001.3 |
| 20260505235003 | 12 | 6 | 6.4 | 14.5 | 0.00 | 0.61 | 0.61 | 97 | 1001.3 |
| 20260505234903 | 12 | 7 | 6.4 | 14.5 | 0.00 | 0.61 | 0.61 | 97 | 1001.4 |
| 20260505234816 | 12 | 6 | 6.4 | 14.5 | 0.00 | 0.61 | 0.61 | 97 | 1001.4 |
| 20260505234803 | 12 | 8 | 6.4 | 14.5 | 0.00 | 0.61 | 0.61 | 97 | 1001.5 |
| 20260505234703 | 12 | 8 | 6.4 | 14.5 | 0.00 | 0.61 | 0.61 | 97 | 1001.5 |
| 20260505234503 | 12 | 6 | 6.4 | 14.5 | 0.00 | 0.61 | 0.61 | 97 | 1001.3 |
| 20260505234403 | 12 | 6 | 6.4 | 16.1 | 0.00 | 0.61 | 0.61 | 97 | 1001.3 |
| 20260505234303 | 12 | 6 | 6.4 | 16.1 | 0.00 | 0.61 | 0.61 | 97 | 1001.5 |
| 20260505234203 | 12 | 6 | 6.4 | 16.1 | 0.00 | 0.61 | 0.61 | 97 | 1001.5 |
| 20260505234103 | 12 | 4 | 6.4 | 16.1 | 0.00 | 0.61 | 0.61 | 97 | 1001.5 |
| 20260505233903 | 12 | 4 | 6.4 | 16.1 | 0.00 | 0.61 | 0.61 | 97 | 1001.4 |
| 20260505233803 | 12 | 1 | 6.4 | 16.1 | 0.00 | 0.61 | 0.61 | 97 | 1001.5 |
| 20260505233703 | 12 | 2 | 6.4 | 16.1 | 0.00 | 0.61 | 0.61 | 97 | 1001.6 |
| 20260505233603 | 12 | 1 | 6.4 | 16.1 | 0.00 | 0.61 | 0.61 | 97 | 1001.6 |
| 20260505233503 | 12 | 2 | 6.4 | 16.1 | 0.00 | 0.61 | 0.61 | 97 | 1001.2 |
| 20260505233403 | 12 | 3 | 6.4 | 16.1 | 0.00 | 0.61 | 0.61 | 97 | 1001.4 |
| 20260505233303 | 12 | 2 | 4.8 | 16.1 | 0.00 | 0.61 | 0.61 | 97 | 1001.4 |
| 20260505233203 | 12 | 2 | 4.8 | 12.9 | 0.00 | 0.61 | 0.61 | 97 | 1001.5 |
| 20260505233103 | 12 | 2 | 4.8 | 12.9 | 0.00 | 0.61 | 0.61 | 97 | 1001.5 |
| 20260505233003 | 12 | 2 | 4.8 | 12.9 | 0.00 | 0.61 | 0.61 | 97 | 1001.2 |
| 20260505232903 | 12 | 1 | 4.8 | 14.5 | 0.00 | 0.61 | 0.61 | 97 | 1001.3 |
| 20260505232803 | 12 | 1 | 4.8 | 14.5 | 0.00 | 0.61 | 0.61 | 97 | 1001.3 |
| 20260505232703 | 12 | 359 | 4.8 | 14.5 | 0.00 | 0.61 | 0.61 | 97 | 1001.4 |
| 20260505232503 | 12 | 357 | 4.8 | 14.5 | 0.00 | 0.61 | 0.61 | 97 | 1001.5 |
| 20260505232403 | 12 | 356 | 4.8 | 14.5 | 0.00 | 0.61 | 0.61 | 97 | 1001.4 |
| 20260505232305 | 12 | 354 | 4.8 | 14.5 | 0.00 | 0.61 | 0.61 | 97 | 1001.4 |
| 20260505232203 | 12 | 355 | 4.8 | 14.5 | 0.00 | 0.61 | 0.61 | 97 | 1001.3 |
| 20260505232103 | 12 | 355 | 4.8 | 14.5 | 0.00 | 0.61 | 0.61 | 97 | 1001.3 |
| 20260505232003 | 12 | 355 | 4.8 | 14.5 | 0.00 | 0.61 | 0.61 | 97 | 1001.3 |
| 20260505231903 | 12 | 355 | 4.8 | 14.5 | 0.00 | 0.61 | 0.61 | 97 | 1001.6 |
| 20260505231803 | 12 | 357 | 4.8 | 14.5 | 0.00 | 0.61 | 0.61 | 97 | 1001.6 |
| 20260505231703 | 12 | 358 | 4.8 | 14.5 | 0.00 | 0.61 | 0.61 | 97 | 1001.3 |
| 20260505231619 | 12 | 357 | 4.8 | 14.5 | 0.00 | 0.61 | 0.61 | 97 | 1001.3 |
| 20260505231603 | 12 | 359 | 4.8 | 14.5 | 0.00 | 0.61 | 0.61 | 97 | 1001.4 |
| 20260505231503 | 12 | 359 | 4.8 | 14.5 | 0.00 | 0.61 | 0.61 | 97 | 1001.4 |
| 20260505231303 | 12 | 3 | 4.8 | 14.5 | 0.00 | 0.61 | 0.61 | 97 | 1001.4 |
| 20260505231203 | 12 | 2 | 6.4 | 14.5 | 0.00 | 0.61 | 0.61 | 97 | 1001.4 |
| 20260505231116 | 12 | 3 | 6.4 | 14.5 | 0.00 | 0.61 | 0.61 | 97 | 1001.5 |
| 20260505231103 | 12 | 3 | 6.4 | 14.5 | 0.00 | 0.61 | 0.61 | 97 | 1001.4 |
| 20260505231003 | 12 | 5 | 6.4 | 14.5 | 0.00 | 0.61 | 0.61 | 97 | 1001.4 |
| 20260505230803 | 12 | 5 | 6.4 | 14.5 | 0.00 | 0.61 | 0.61 | 97 | 1001.3 |
| 20260505230703 | 12 | 5 | 6.4 | 14.5 | 0.00 | 0.61 | 0.61 | 97 | 1001.3 |
| 20260505230603 | 12 | 8 | 6.4 | 12.9 | 0.00 | 0.61 | 0.61 | 97 | 1001.5 |
| 20260505230503 | 12 | 11 | 6.4 | 12.9 | 0.00 | 0.61 | 0.61 | 97 | 1001.5 |
| 20260505230403 | 12 | 13 | 4.8 | 12.9 | 0.00 | 0.61 | 0.61 | 97 | 1001.5 |
| 20260505230303 | 12 | 12 | 6.4 | 12.9 | 0.00 | 0.61 | 0.61 | 97 | 1001.3 |
| 20260505230203 | 12 | 13 | 4.8 | 12.9 | 0.00 | 0.61 | 0.61 | 97 | 1001.6 |
| 20260505230003 | 12 | 12 | 4.8 | 11.3 | 0.00 | 0.61 | 0.61 | 97 | 1001.4 |
| 20260505225903 | 12 | 14 | 4.8 | 11.3 | 0.00 | 0.61 | 0.61 | 97 | 1001.5 |
| 20260505225803 | 12 | 13 | 4.8 | 11.3 | 0.00 | 0.61 | 0.61 | 97 | 1001.8 |
| 20260505225703 | 12 | 15 | 4.8 | 11.3 | 0.00 | 0.61 | 0.61 | 97 | 1001.8 |
| 20260505225603 | 12 | 15 | 4.8 | 11.3 | 0.00 | 0.61 | 0.61 | 97 | 1001.5 |
| 20260505225504 | 12 | 14 | 4.8 | 11.3 | 0.00 | 0.61 | 0.61 | 97 | 1001.7 |
| 20260505225403 | 12 | 15 | 4.8 | 11.3 | 0.00 | 0.61 | 0.61 | 97 | 1001.7 |
| 20260505225305 | 12 | 14 | 4.8 | 11.3 | 0.00 | 0.61 | 0.61 | 97 | 1001.5 |
| 20260505225203 | 12 | 15 | 4.8 | 11.3 | 0.00 | 0.61 | 0.61 | 97 | 1001.5 |
| 20260505225103 | 12 | 15 | 4.8 | 9.7 | 0.00 | 0.61 | 0.61 | 97 | 1001.5 |
| 20260505225003 | 12 | 16 | 4.8 | 9.7 | 0.00 | 0.61 | 0.61 | 97 | 1001.6 |
| 20260505224917 | 12 | 17 | 4.8 | 9.7 | 0.00 | 0.61 | 0.61 | 97 | 1001.6 |
| 20260505224803 | 12 | 18 | 4.8 | 9.7 | 0.00 | 0.61 | 0.61 | 97 | 1001.5 |
| 20260505224603 | 12 | 14 | 4.8 | 9.7 | 0.00 | 0.61 | 0.61 | 97 | 1001.5 |
| 20260505224503 | 12 | 17 | 4.8 | 9.7 | 0.00 | 0.61 | 0.61 | 97 | 1001.5 |
| 20260505224403 | 12 | 13 | 4.8 | 9.7 | 0.00 | 0.61 | 0.61 | 97 | 1001.8 |
| 20260505224303 | 12 | 14 | 3.2 | 9.7 | 0.00 | 0.61 | 0.61 | 97 | 1001.8 |
| 20260505224219 | 12 | 14 | 3.2 | 9.7 | 0.00 | 0.61 | 0.61 | 97 | 1001.8 |
| 20260505224203 | 12 | 13 | 3.2 | 9.7 | 0.00 | 0.61 | 0.61 | 97 | 1001.8 |
| 20260505224103 | 12 | 12 | 3.2 | 9.7 | 0.00 | 0.61 | 0.61 | 97 | 1001.7 |
| 20260505223919 | 12 | 12 | 3.2 | 9.7 | 0.00 | 0.61 | 0.61 | 97 | 1001.8 |
| 20260505223903 | 12 | 11 | 3.2 | 9.7 | 0.00 | 0.61 | 0.61 | 97 | 1001.6 |
| 20260505223803 | 12 | 12 | 3.2 | 11.3 | 0.00 | 0.61 | 0.61 | 97 | 1001.6 |
| 20260505223603 | 12 | 13 | 3.2 | 11.3 | 0.00 | 0.61 | 0.61 | 97 | 1001.8 |
| 20260505223503 | 12 | 9 | 3.2 | 11.3 | 0.00 | 0.61 | 0.61 | 97 | 1001.8 |
| 20260505223403 | 12 | 8 | 4.8 | 11.3 | 0.00 | 0.61 | 0.61 | 97 | 1001.8 |
| 20260505223303 | 12 | 7 | 4.8 | 11.3 | 0.00 | 0.61 | 0.61 | 97 | 1001.7 |
| 20260505223203 | 12 | 6 | 4.8 | 11.3 | 0.00 | 0.61 | 0.61 | 97 | 1001.7 |
| 20260505223103 | 12 | 8 | 4.8 | 11.3 | 0.00 | 0.61 | 0.61 | 97 | 1001.7 |
| 20260505223018 | 12 | 6 | 4.8 | 11.3 | 0.00 | 0.61 | 0.61 | 97 | 1001.7 |
| 20260505223003 | 12 | 5 | 4.8 | 11.3 | 0.00 | 0.61 | 0.61 | 97 | 1001.8 |
| 20260505222903 | 12 | 5 | 4.8 | 11.3 | 0.00 | 0.61 | 0.61 | 97 | 1001.8 |
| 20260505222603 | 13 | 3 | 4.8 | 9.7 | 0.00 | 0.61 | 0.61 | 97 | 1001.8 |
| 20260505222503 | 13 | 4 | 4.8 | 9.7 | 0.00 | 0.61 | 0.61 | 97 | 1001.8 |
| 20260505222403 | 13 | 4 | 4.8 | 9.7 | 0.00 | 0.61 | 0.61 | 97 | 1001.8 |
| 20260505222305 | 13 | 4 | 4.8 | 9.7 | 0.00 | 0.61 | 0.61 | 97 | 1002.0 |
| 20260505222219 | 13 | 5 | 4.8 | 9.7 | 0.00 | 0.61 | 0.61 | 97 | 1002.0 |
| 20260505222203 | 13 | 5 | 4.8 | 9.7 | 0.00 | 0.61 | 0.61 | 97 | 1002.1 |
| 20260505222103 | 13 | 4 | 4.8 | 9.7 | 0.00 | 0.61 | 0.61 | 97 | 1002.1 |
| 20260505221903 | 13 | 4 | 4.8 | 9.7 | 0.00 | 0.61 | 0.61 | 97 | 1002.2 |
| 20260505221803 | 13 | 2 | 4.8 | 9.7 | 0.00 | 0.61 | 0.61 | 97 | 1001.9 |
| 20260505221703 | 12 | 2 | 4.8 | 9.7 | 0.00 | 0.61 | 0.61 | 97 | 1001.9 |
| 20260505221619 | 13 | 4 | 3.2 | 9.7 | 0.00 | 0.61 | 0.61 | 97 | 1002.0 |
| 20260505221604 | 13 | 4 | 3.2 | 8.0 | 0.00 | 0.61 | 0.61 | 97 | 1002.0 |
| 20260505221503 | 13 | 4 | 3.2 | 8.0 | 0.00 | 0.61 | 0.61 | 97 | 1002.2 |
| 20260505221416 | 13 | 6 | 3.2 | 8.0 | 0.00 | 0.61 | 0.61 | 97 | 1002.2 |
| 20260505221303 | 13 | 8 | 4.8 | 8.0 | 0.00 | 0.61 | 0.61 | 97 | 1001.9 |
| 20260505221103 | 13 | 12 | 4.8 | 8.0 | 0.00 | 0.61 | 0.61 | 97 | 1002.2 |
| 20260505221003 | 13 | 15 | 3.2 | 8.0 | 0.00 | 0.61 | 0.61 | 97 | 1002.1 |
| 20260505220903 | 13 | 16 | 3.2 | 8.0 | 0.00 | 0.61 | 0.61 | 97 | 1002.1 |
| 20260505220803 | 13 | 16 | 3.2 | 8.0 | 0.00 | 0.61 | 0.61 | 97 | 1002.2 |
| 20260505220703 | 13 | 15 | 3.2 | 9.7 | 0.00 | 0.61 | 0.61 | 97 | 1002.1 |
| 20260505220603 | 13 | 12 | 3.2 | 9.7 | 0.00 | 0.61 | 0.61 | 97 | 1002.1 |
| 20260505220503 | 13 | 11 | 4.8 | 9.7 | 0.00 | 0.61 | 0.61 | 97 | 1002.3 |
| 20260505220403 | 13 | 10 | 4.8 | 9.7 | 0.00 | 0.61 | 0.61 | 97 | 1002.3 |
| 20260505220303 | 13 | 8 | 4.8 | 9.7 | 0.00 | 0.61 | 0.61 | 97 | 1002.2 |
| 20260505220203 | 13 | 7 | 3.2 | 9.7 | 0.00 | 0.61 | 0.61 | 97 | 1002.4 |
| 20260505220103 | 13 | 8 | 4.8 | 9.7 | 0.00 | 0.61 | 0.61 | 97 | 1002.4 |
| 20260505220003 | 13 | 8 | 4.8 | 9.7 | 0.00 | 0.61 | 0.61 | 97 | 1002.1 |
| 20260505215903 | 13 | 6 | 4.8 | 9.7 | 0.00 | 0.61 | 0.61 | 97 | 1002.3 |
| 20260505215803 | 13 | 6 | 4.8 | 9.7 | 0.00 | 0.61 | 0.61 | 97 | 1002.3 |
| 20260505215703 | 13 | 5 | 4.8 | 9.7 | 0.00 | 0.61 | 0.61 | 97 | 1002.2 |
| 20260505215603 | 13 | 5 | 4.8 | 9.7 | 0.00 | 0.61 | 0.61 | 97 | 1002.2 |
| 20260505215503 | 13 | 5 | 4.8 | 9.7 | 0.00 | 0.61 | 0.61 | 96 | 1002.3 |
| 20260505215403 | 13 | 5 | 4.8 | 9.7 | 0.00 | 0.61 | 0.61 | 96 | 1002.2 |
| 20260505215305 | 13 | 4 | 4.8 | 9.7 | 0.00 | 0.61 | 0.61 | 96 | 1002.2 |
| 20260505215203 | 13 | 3 | 4.8 | 9.7 | 0.00 | 0.61 | 0.61 | 96 | 1002.3 |
| 20260505215103 | 13 | 1 | 4.8 | 9.7 | 0.00 | 0.61 | 0.61 | 96 | 1002.2 |
| 20260505215003 | 13 | 1 | 4.8 | 9.7 | 0.00 | 0.61 | 0.61 | 96 | 1002.2 |
| 20260505214903 | 13 | 2 | 4.8 | 9.7 | 0.00 | 0.61 | 0.61 | 96 | 1002.2 |
| 20260505214803 | 13 | 3 | 4.8 | 9.7 | 0.00 | 0.61 | 0.61 | 96 | 1002.2 |
| 20260505214703 | 13 | 4 | 4.8 | 9.7 | 0.00 | 0.61 | 0.61 | 96 | 1002.1 |
| 20260505214617 | 13 | 360 | 4.8 | 12.9 | 0.00 | 0.61 | 0.61 | 96 | 1002.1 |
| 20260505214603 | 13 | 1 | 4.8 | 12.9 | 0.00 | 0.61 | 0.61 | 96 | 1002.2 |
| 20260505214503 | 13 | 360 | 4.8 | 12.9 | 0.00 | 0.61 | 0.61 | 96 | 1002.2 |
| 20260505214303 | 13 | 355 | 4.8 | 12.9 | 0.00 | 0.61 | 0.61 | 96 | 1002.1 |
| 20260505214203 | 13 | 353 | 6.4 | 12.9 | 0.00 | 0.61 | 0.61 | 96 | 1002.2 |
| 20260505214103 | 13 | 353 | 4.8 | 12.9 | 0.00 | 0.61 | 0.61 | 96 | 1002.2 |
| 20260505214003 | 13 | 353 | 4.8 | 12.9 | 0.00 | 0.61 | 0.61 | 96 | 1001.9 |
| 20260505213903 | 13 | 351 | 6.4 | 12.9 | 0.00 | 0.61 | 0.61 | 96 | 1002.1 |
| 20260505213817 | 13 | 351 | 6.4 | 12.9 | 0.00 | 0.61 | 0.61 | 96 | 1002.1 |
| 20260505213803 | 13 | 352 | 6.4 | 12.9 | 0.00 | 0.61 | 0.61 | 96 | 1002.1 |
| 20260505213703 | 13 | 350 | 6.4 | 12.9 | 0.00 | 0.61 | 0.61 | 96 | 1002.2 |
| 20260505213503 | 13 | 352 | 6.4 | 16.1 | 0.00 | 0.61 | 0.61 | 96 | 1002.0 |
| 20260505213403 | 13 | 353 | 4.8 | 16.1 | 0.00 | 0.61 | 0.61 | 96 | 1002.2 |
| 20260505213303 | 13 | 357 | 4.8 | 16.1 | 0.00 | 0.61 | 0.61 | 97 | 1002.2 |
| 20260505213217 | 13 | 358 | 4.8 | 16.1 | 0.00 | 0.61 | 0.61 | 97 | 1002.0 |
| 20260505213203 | 13 | 358 | 4.8 | 16.1 | 0.00 | 0.61 | 0.61 | 96 | 1002.0 |
| 20260505213103 | 13 | 359 | 4.8 | 16.1 | 0.00 | 0.61 | 0.61 | 96 | 1002.2 |
| 20260505212917 | 13 | 358 | 4.8 | 16.1 | 0.00 | 0.61 | 0.61 | 97 | 1002.2 |
| 20260505212903 | 13 | 358 | 4.8 | 16.1 | 0.00 | 0.61 | 0.61 | 97 | 1002.0 |
| 20260505212820 | 13 | 359 | 4.8 | 16.1 | 0.00 | 0.61 | 0.61 | 97 | 1002.0 |
| 20260505212803 | 13 | 358 | 4.8 | 16.1 | 0.00 | 0.61 | 0.61 | 97 | 1002.1 |
| 20260505212616 | 13 | 357 | 4.8 | 16.1 | 0.00 | 0.61 | 0.61 | 97 | 1002.1 |
| 20260505212503 | 13 | 357 | 4.8 | 16.1 | 0.00 | 0.61 | 0.61 | 97 | 1002.0 |
| 20260505212418 | 13 | 357 | 4.8 | 16.1 | 0.00 | 0.61 | 0.61 | 97 | 1002.3 |
| 20260505212103 | 13 | 353 | 4.8 | 11.3 | 0.00 | 0.61 | 0.61 | 97 | 1002.2 |
| 20260505212003 | 13 | 353 | 4.8 | 11.3 | 0.00 | 0.61 | 0.61 | 97 | 1002.1 |
| 20260505211903 | 13 | 353 | 4.8 | 11.3 | 0.00 | 0.61 | 0.61 | 97 | 1002.1 |
| 20260505211803 | 13 | 353 | 4.8 | 11.3 | 0.00 | 0.61 | 0.61 | 97 | 1002.3 |
| 20260505211703 | 13 | 355 | 4.8 | 9.7 | 0.00 | 0.61 | 0.61 | 97 | 1002.3 |
| 20260505211603 | 13 | 355 | 4.8 | 9.7 | 0.00 | 0.61 | 0.61 | 97 | 1002.1 |
| 20260505211503 | 13 | 355 | 4.8 | 9.7 | 0.00 | 0.61 | 0.61 | 97 | 1002.1 |
| 20260505211403 | 13 | 353 | 4.8 | 11.3 | 0.00 | 0.61 | 0.61 | 97 | 1002.1 |
| 20260505211303 | 13 | 354 | 4.8 | 11.3 | 0.00 | 0.61 | 0.61 | 97 | 1002.1 |
| 20260505211203 | 13 | 352 | 4.8 | 11.3 | 0.00 | 0.61 | 0.61 | 97 | 1002.0 |
| 20260505211103 | 13 | 352 | 4.8 | 12.9 | 0.00 | 0.61 | 0.61 | 97 | 1002.0 |
| 20260505211003 | 13 | 351 | 4.8 | 12.9 | 0.00 | 0.61 | 0.61 | 97 | 1002.2 |
| 20260505210903 | 13 | 351 | 4.8 | 12.9 | 0.00 | 0.61 | 0.61 | 97 | 1002.2 |
| 20260505210803 | 13 | 350 | 6.4 | 12.9 | 0.00 | 0.61 | 0.61 | 97 | 1002.0 |
| 20260505210603 | 13 | 350 | 6.4 | 12.9 | 0.00 | 0.61 | 0.61 | 97 | 1002.0 |
| 20260505210503 | 13 | 350 | 6.4 | 12.9 | 0.00 | 0.61 | 0.61 | 98 | 1002.2 |
| 20260505210403 | 13 | 351 | 6.4 | 12.9 | 0.00 | 0.61 | 0.61 | 97 | 1002.1 |
| 20260505210303 | 13 | 352 | 6.4 | 12.9 | 0.00 | 0.61 | 0.61 | 98 | 1002.1 |
| 20260505210203 | 13 | 351 | 6.4 | 12.9 | 0.00 | 0.61 | 0.61 | 97 | 1002.2 |
| 20260505210103 | 13 | 352 | 6.4 | 12.9 | 0.00 | 0.61 | 0.61 | 97 | 1002.2 |
| 20260505210003 | 13 | 352 | 6.4 | 12.9 | 0.00 | 0.61 | 0.61 | 97 | 1002.2 |
| 20260505205903 | 13 | 353 | 4.8 | 9.7 | 0.00 | 0.61 | 0.61 | 97 | 1002.1 |
| 20260505205803 | 13 | 353 | 4.8 | 9.7 | 0.00 | 0.61 | 0.61 | 97 | 1002.1 |
| 20260505205703 | 13 | 354 | 4.8 | 9.7 | 0.00 | 0.61 | 0.61 | 97 | 1002.2 |
| 20260505205603 | 13 | 354 | 4.8 | 9.7 | 0.00 | 0.61 | 0.61 | 97 | 1002.2 |
| 20260505205503 | 13 | 354 | 4.8 | 8.0 | 0.00 | 0.61 | 0.61 | 97 | 1002.2 |
| 20260505205403 | 13 | 353 | 4.8 | 8.0 | 0.00 | 0.61 | 0.61 | 97 | 1002.2 |
| 20260505205305 | 13 | 352 | 4.8 | 8.0 | 0.00 | 0.61 | 0.61 | 97 | 1002.2 |
| 20260505205203 | 13 | 352 | 4.8 | 8.0 | 0.00 | 0.61 | 0.61 | 97 | 1002.5 |
| 20260505205103 | 13 | 353 | 3.2 | 8.0 | 0.00 | 0.61 | 0.61 | 97 | 1002.2 |
| 20260505205003 | 13 | 352 | 3.2 | 8.0 | 0.00 | 0.61 | 0.61 | 97 | 1002.4 |
| 20260505204903 | 13 | 353 | 3.2 | 8.0 | 0.00 | 0.61 | 0.61 | 97 | 1002.3 |
| 20260505204803 | 13 | 351 | 3.2 | 6.4 | 0.00 | 0.61 | 0.61 | 97 | 1002.3 |
| 20260505204703 | 13 | 351 | 3.2 | 6.4 | 0.00 | 0.61 | 0.61 | 97 | 1002.1 |
| 20260505204603 | 13 | 350 | 3.2 | 6.4 | 0.00 | 0.61 | 0.61 | 97 | 1002.2 |
| 20260505204503 | 13 | 349 | 4.8 | 6.4 | 0.00 | 0.61 | 0.61 | 97 | 1002.2 |
| 20260505204403 | 13 | 348 | 4.8 | 6.4 | 0.00 | 0.61 | 0.61 | 97 | 1002.1 |
| 20260505204303 | 13 | 348 | 4.8 | 6.4 | 0.00 | 0.61 | 0.61 | 97 | 1002.1 |
| 20260505204203 | 13 | 344 | 4.8 | 8.0 | 0.00 | 0.61 | 0.61 | 97 | 1002.1 |
| 20260505204003 | 13 | 340 | 4.8 | 8.0 | 0.00 | 0.61 | 0.61 | 97 | 1002.3 |
| 20260505203903 | 12 | 339 | 4.8 | 8.0 | 0.00 | 0.61 | 0.61 | 97 | 1002.1 |
| 20260505203803 | 12 | 338 | 4.8 | 8.0 | 0.00 | 0.61 | 0.61 | 96 | 1002.1 |
| 20260505203703 | 12 | 337 | 4.8 | 8.0 | 0.00 | 0.61 | 0.61 | 96 | 1002.1 |
| 20260505203603 | 12 | 335 | 4.8 | 8.0 | 0.00 | 0.61 | 0.61 | 96 | 1002.0 |
| 20260505203517 | 12 | 335 | 4.8 | 8.0 | 0.00 | 0.61 | 0.61 | 96 | 1002.0 |
| 20260505203503 | 12 | 336 | 4.8 | 8.0 | 0.00 | 0.61 | 0.61 | 96 | 1002.0 |
| 20260505203419 | 13 | 336 | 4.8 | 8.0 | 0.00 | 0.61 | 0.61 | 96 | 1002.3 |
| 20260505203403 | 13 | 337 | 4.8 | 8.0 | 0.00 | 0.61 | 0.61 | 96 | 1002.1 |
| 20260505203103 | 13 | 343 | 4.8 | 8.0 | 0.00 | 0.61 | 0.61 | 96 | 1002.0 |
| 20260505203003 | 13 | 345 | 4.8 | 8.0 | 0.00 | 0.61 | 0.61 | 96 | 1002.0 |
| 20260505202903 | 13 | 346 | 4.8 | 8.0 | 0.00 | 0.61 | 0.61 | 96 | 1002.1 |
| 20260505202803 | 13 | 346 | 4.8 | 8.0 | 0.00 | 0.61 | 0.61 | 96 | 1002.1 |
| 20260505202718 | 13 | 348 | 3.2 | 8.0 | 0.00 | 0.61 | 0.61 | 96 | 1002.0 |
| 20260505202703 | 13 | 349 | 3.2 | 8.0 | 0.00 | 0.61 | 0.61 | 96 | 1002.1 |
| 20260505202616 | 12 | 351 | 3.2 | 8.0 | 0.00 | 0.61 | 0.61 | 95 | 1002.1 |
| 20260505202603 | 12 | 351 | 3.2 | 8.0 | 0.00 | 0.61 | 0.61 | 95 | 1002.2 |
| 20260505202306 | 13 | 348 | 3.2 | 6.4 | 0.00 | 0.61 | 0.61 | 96 | 1002.1 |
| 20260505202218 | 13 | 347 | 3.2 | 6.4 | 0.00 | 0.61 | 0.61 | 96 | 1002.1 |
| 20260505202203 | 13 | 346 | 3.2 | 6.4 | 0.00 | 0.61 | 0.61 | 96 | 1002.0 |
| 20260505202103 | 13 | 344 | 3.2 | 6.4 | 0.00 | 0.61 | 0.61 | 96 | 1001.8 |
| 20260505201903 | 13 | 345 | 3.2 | 6.4 | 0.00 | 0.61 | 0.61 | 95 | 1001.9 |
| 20260505201803 | 13 | 345 | 3.2 | 6.4 | 0.00 | 0.61 | 0.61 | 95 | 1001.9 |
| 20260505201703 | 13 | 345 | 3.2 | 6.4 | 0.00 | 0.61 | 0.61 | 95 | 1001.9 |
| 20260505201603 | 13 | 347 | 3.2 | 6.4 | 0.00 | 0.61 | 0.61 | 96 | 1002.0 |
| 20260505201505 | 13 | 348 | 3.2 | 6.4 | 0.00 | 0.61 | 0.61 | 95 | 1001.9 |
| 20260505201403 | 13 | 350 | 3.2 | 6.4 | 0.00 | 0.61 | 0.61 | 96 | 1001.9 |
| 20260505201303 | 13 | 353 | 3.2 | 6.4 | 0.00 | 0.61 | 0.61 | 95 | 1002.1 |
| 20260505201203 | 13 | 357 | 3.2 | 6.4 | 0.00 | 0.61 | 0.61 | 95 | 1002.0 |
| 20260505201103 | 13 | 359 | 3.2 | 6.4 | 0.00 | 0.61 | 0.61 | 95 | 1002.0 |
| 20260505201003 | 13 | 1 | 3.2 | 6.4 | 0.00 | 0.61 | 0.61 | 95 | 1002.1 |
| 20260505200903 | 13 | 4 | 3.2 | 6.4 | 0.00 | 0.61 | 0.61 | 95 | 1001.9 |
| 20260505200803 | 13 | 5 | 3.2 | 6.4 | 0.00 | 0.61 | 0.61 | 95 | 1001.9 |
| 20260505200703 | 13 | 5 | 3.2 | 6.4 | 0.00 | 0.61 | 0.61 | 95 | 1001.9 |
| 20260505200503 | 13 | 5 | 3.2 | 6.4 | 0.00 | 0.61 | 0.61 | 95 | 1001.9 |
| 20260505200403 | 13 | 5 | 3.2 | 6.4 | 0.00 | 0.61 | 0.61 | 95 | 1002.0 |
| 20260505200303 | 13 | 5 | 3.2 | 6.4 | 0.00 | 0.61 | 0.61 | 94 | 1002.0 |
| 20260505200203 | 13 | 5 | 3.2 | 6.4 | 0.00 | 0.61 | 0.61 | 94 | 1002.1 |
| 20260505200003 | 13 | 9 | 3.2 | 6.4 | 0.00 | 0.61 | 0.61 | 95 | 1002.2 |
| 20260505195903 | 13 | 11 | 3.2 | 6.4 | 0.00 | 0.61 | 0.61 | 94 | 1002.1 |
| 20260505195803 | 13 | 11 | 3.2 | 6.4 | 0.00 | 0.61 | 0.61 | 94 | 1001.9 |
| 20260505195719 | 13 | 13 | 3.2 | 6.4 | 0.00 | 0.61 | 0.61 | 94 | 1001.9 |
| 20260505195703 | 13 | 12 | 3.2 | 6.4 | 0.00 | 0.61 | 0.61 | 94 | 1001.9 |
| 20260505195603 | 13 | 13 | 3.2 | 6.4 | 0.00 | 0.61 | 0.61 | 94 | 1002.0 |
| 20260505195403 | 13 | 13 | 3.2 | 6.4 | 0.00 | 0.61 | 0.61 | 95 | 1002.0 |
| 20260505195305 | 13 | 13 | 3.2 | 6.4 | 0.00 | 0.61 | 0.61 | 95 | 1002.1 |
| 20260505195216 | 13 | 12 | 3.2 | 6.4 | 0.00 | 0.61 | 0.61 | 95 | 1002.1 |
| 20260505195203 | 13 | 12 | 3.2 | 6.4 | 0.00 | 0.61 | 0.61 | 95 | 1001.9 |
| 20260505195103 | 13 | 12 | 3.2 | 6.4 | 0.00 | 0.61 | 0.61 | 94 | 1001.9 |
| 20260505194903 | 13 | 11 | 3.2 | 6.4 | 0.00 | 0.61 | 0.61 | 94 | 1002.0 |
| 20260505194803 | 13 | 11 | 3.2 | 6.4 | 0.00 | 0.61 | 0.61 | 94 | 1001.7 |
| 20260505194703 | 13 | 10 | 3.2 | 6.4 | 0.00 | 0.61 | 0.61 | 94 | 1001.7 |
| 20260505194603 | 13 | 9 | 3.2 | 8.0 | 0.00 | 0.61 | 0.61 | 94 | 1001.9 |
| 20260505194503 | 13 | 10 | 3.2 | 8.0 | 0.00 | 0.61 | 0.61 | 95 | 1001.9 |
| 20260505194403 | 13 | 10 | 4.8 | 8.0 | 0.00 | 0.61 | 0.61 | 95 | 1001.9 |
| 20260505194103 | 13 | 14 | 3.2 | 8.0 | 0.00 | 0.61 | 0.61 | 95 | 1002.0 |
| 20260505194003 | 13 | 15 | 3.2 | 8.0 | 0.00 | 0.61 | 0.61 | 95 | 1001.8 |
| 20260505193903 | 13 | 17 | 3.2 | 8.0 | 0.00 | 0.61 | 0.61 | 95 | 1001.7 |
| 20260505193803 | 13 | 18 | 3.2 | 8.0 | 0.00 | 0.61 | 0.61 | 95 | 1001.8 |
| 20260505193719 | 13 | 19 | 3.2 | 8.0 | 0.00 | 0.61 | 0.61 | 95 | 1001.8 |
| 20260505193703 | 13 | 18 | 3.2 | 8.0 | 0.00 | 0.61 | 0.61 | 95 | 1001.8 |
| 20260505193603 | 13 | 21 | 3.2 | 8.0 | 0.00 | 0.61 | 0.61 | 95 | 1002.0 |
| 20260505193403 | 13 | 22 | 3.2 | 8.0 | 0.00 | 0.61 | 0.61 | 95 | 1001.7 |
| 20260505193303 | 13 | 20 | 3.2 | 8.0 | 0.00 | 0.61 | 0.61 | 95 | 1001.8 |
| 20260505193203 | 14 | 18 | 3.2 | 8.0 | 0.00 | 0.61 | 0.61 | 95 | 1001.8 |
| 20260505193103 | 14 | 15 | 3.2 | 8.0 | 0.00 | 0.61 | 0.61 | 96 | 1001.9 |
| 20260505193003 | 14 | 12 | 3.2 | 8.0 | 0.00 | 0.61 | 0.61 | 96 | 1001.6 |
| 20260505192903 | 14 | 10 | 3.2 | 8.0 | 0.00 | 0.61 | 0.61 | 96 | 1001.9 |
| 20260505192803 | 14 | 8 | 3.2 | 8.0 | 0.00 | 0.61 | 0.61 | 96 | 1001.9 |
| 20260505192703 | 14 | 7 | 3.2 | 8.0 | 0.00 | 0.61 | 0.61 | 96 | 1001.9 |
| 20260505192603 | 13 | 5 | 3.2 | 8.0 | 0.00 | 0.61 | 0.61 | 96 | 1001.8 |
| 20260505192503 | 13 | 2 | 3.2 | 6.4 | 0.00 | 0.61 | 0.61 | 97 | 1001.8 |
| 20260505192403 | 13 | 3 | 3.2 | 6.4 | 0.00 | 0.61 | 0.61 | 97 | 1001.8 |
| 20260505192305 | 13 | 4 | 3.2 | 6.4 | 0.00 | 0.61 | 0.61 | 96 | 1001.9 |
| 20260505192203 | 13 | 5 | 3.2 | 6.4 | 0.00 | 0.61 | 0.61 | 96 | 1001.9 |
| 20260505192117 | 13 | 7 | 3.2 | 6.4 | 0.00 | 0.61 | 0.61 | 97 | 1001.9 |
| 20260505192103 | 13 | 7 | 3.2 | 6.4 | 0.00 | 0.61 | 0.61 | 97 | 1002.0 |
| 20260505192019 | 13 | 8 | 3.2 | 6.4 | 0.00 | 0.61 | 0.61 | 96 | 1002.0 |
| 20260505192003 | 13 | 8 | 3.2 | 6.4 | 0.00 | 0.61 | 0.61 | 96 | 1001.9 |
| 20260505191703 | 13 | 5 | 3.2 | 6.4 | 0.00 | 0.61 | 0.61 | 96 | 1001.8 |
| 20260505191603 | 13 | 4 | 3.2 | 6.4 | 0.00 | 0.61 | 0.61 | 96 | 1002.1 |
| 20260505191516 | 13 | 3 | 4.8 | 6.4 | 0.00 | 0.61 | 0.61 | 96 | 1002.1 |
| 20260505191403 | 13 | 360 | 4.8 | 6.4 | 0.00 | 0.61 | 0.61 | 96 | 1002.0 |
| 20260505191203 | 13 | 353 | 4.8 | 6.4 | 0.00 | 0.61 | 0.61 | 96 | 1002.0 |
| 20260505191103 | 13 | 350 | 4.8 | 6.4 | 0.00 | 0.61 | 0.61 | 96 | 1001.9 |
| 20260505191003 | 13 | 349 | 4.8 | 6.4 | 0.00 | 0.61 | 0.61 | 96 | 1001.9 |
| 20260505190903 | 13 | 348 | 4.8 | 6.4 | 0.00 | 0.61 | 0.61 | 96 | 1002.0 |
| 20260505190818 | 13 | 347 | 4.8 | 6.4 | 0.00 | 0.61 | 0.61 | 96 | 1002.0 |
| 20260505190803 | 13 | 347 | 4.8 | 6.4 | 0.00 | 0.61 | 0.61 | 96 | 1002.1 |
| 20260505190703 | 13 | 347 | 4.8 | 6.4 | 0.00 | 0.61 | 0.61 | 96 | 1002.1 |
| 20260505190503 | 13 | 345 | 3.2 | 6.4 | 0.00 | 0.61 | 0.61 | 96 | 1002.2 |
| 20260505190403 | 13 | 345 | 3.2 | 6.4 | 0.00 | 0.61 | 0.61 | 96 | 1002.0 |
| 20260505190303 | 13 | 346 | 3.2 | 6.4 | 0.00 | 0.61 | 0.61 | 96 | 1001.8 |
| 20260505190204 | 13 | 348 | 3.2 | 6.4 | 0.00 | 0.61 | 0.61 | 96 | 1001.8 |
| 20260505190103 | 13 | 349 | 3.2 | 6.4 | 0.00 | 0.61 | 0.61 | 96 | 1001.9 |
| 20260505190004 | 13 | 350 | 3.2 | 6.4 | 0.00 | 0.61 | 0.61 | 95 | 1002.0 |
| 20260505185903 | 13 | 350 | 3.2 | 6.4 | 0.00 | 0.61 | 0.61 | 95 | 1002.0 |
| 20260505185803 | 13 | 350 | 3.2 | 6.4 | 0.00 | 0.61 | 0.61 | 95 | 1002.0 |
| 20260505185703 | 13 | 351 | 3.2 | 6.4 | 0.00 | 0.61 | 0.61 | 95 | 1002.1 |
| 20260505185603 | 13 | 352 | 3.2 | 6.4 | 0.00 | 0.61 | 0.61 | 95 | 1001.9 |
| 20260505185503 | 14 | 354 | 3.2 | 6.4 | 0.00 | 0.61 | 0.61 | 95 | 1002.0 |
| 20260505185403 | 14 | 356 | 3.2 | 4.8 | 0.00 | 0.61 | 0.61 | 95 | 1002.0 |
| 20260505185305 | 14 | 358 | 3.2 | 4.8 | 0.00 | 0.61 | 0.61 | 94 | 1002.0 |
| 20260505185203 | 14 | 358 | 1.6 | 4.8 | 0.00 | 0.61 | 0.61 | 94 | 1002.0 |
| 20260505185103 | 14 | 360 | 1.6 | 4.8 | 0.00 | 0.61 | 0.61 | 94 | 1001.9 |
| 20260505185003 | 14 | 360 | 1.6 | 4.8 | 0.00 | 0.61 | 0.61 | 94 | 1001.8 |
| 20260505184903 | 14 | 360 | 1.6 | 4.8 | 0.00 | 0.61 | 0.61 | 94 | 1001.8 |
| 20260505184803 | 14 | 358 | 1.6 | 4.8 | 0.00 | 0.61 | 0.61 | 94 | 1002.0 |
| 20260505184703 | 14 | 355 | 1.6 | 4.8 | 0.00 | 0.61 | 0.61 | 94 | 1002.0 |
| 20260505184603 | 14 | 352 | 1.6 | 4.8 | 0.00 | 0.61 | 0.61 | 94 | 1002.0 |
| 20260505184503 | 14 | 350 | 1.6 | 4.8 | 0.00 | 0.61 | 0.61 | 94 | 1001.9 |
| 20260505184403 | 14 | 350 | 3.2 | 4.8 | 0.00 | 0.61 | 0.61 | 94 | 1001.9 |
| 20260505184303 | 14 | 349 | 3.2 | 4.8 | 0.00 | 0.61 | 0.61 | 94 | 1001.8 |
| 20260505184203 | 15 | 350 | 3.2 | 4.8 | 0.00 | 0.61 | 0.61 | 94 | 1001.7 |
| 20260505184103 | 15 | 349 | 3.2 | 4.8 | 0.00 | 0.61 | 0.61 | 94 | 1001.7 |
| 20260505184003 | 15 | 350 | 3.2 | 4.8 | 0.00 | 0.61 | 0.61 | 94 | 1002.2 |
| 20260505183903 | 15 | 351 | 3.2 | 4.8 | 0.00 | 0.61 | 0.61 | 94 | 1001.8 |
| 20260505183803 | 15 | 353 | 3.2 | 4.8 | 0.00 | 0.61 | 0.61 | 93 | 1001.8 |
| 20260505183719 | 15 | 354 | 3.2 | 4.8 | 0.00 | 0.61 | 0.61 | 93 | 1002.1 |
| 20260505183703 | 15 | 355 | 3.2 | 4.8 | 0.00 | 0.61 | 0.61 | 93 | 1002.0 |
| 20260505183618 | 15 | 356 | 3.2 | 4.8 | 0.00 | 0.61 | 0.61 | 93 | 1002.0 |
| 20260505183603 | 15 | 357 | 3.2 | 4.8 | 0.00 | 0.61 | 0.61 | 93 | 1001.9 |
| 20260505183516 | 15 | 358 | 3.2 | 6.4 | 0.00 | 0.61 | 0.61 | 93 | 1001.9 |
| 20260505183317 | 15 | 359 | 3.2 | 6.4 | 0.00 | 0.61 | 0.61 | 93 | 1001.8 |
| 20260505183203 | 15 | 358 | 3.2 | 6.4 | 0.00 | 0.61 | 0.61 | 93 | 1001.8 |
| 20260505183003 | 15 | 357 | 3.2 | 6.4 | 0.00 | 0.61 | 0.61 | 93 | 1002.0 |
| 20260505182903 | 15 | 358 | 3.2 | 6.4 | 0.00 | 0.61 | 0.61 | 93 | 1001.9 |
| 20260505182803 | 15 | 360 | 3.2 | 6.4 | 0.00 | 0.61 | 0.61 | 93 | 1001.9 |
| 20260505182703 | 15 | 1 | 3.2 | 6.4 | 0.00 | 0.61 | 0.61 | 93 | 1001.8 |
| 20260505182603 | 15 | 4 | 3.2 | 6.4 | 0.00 | 0.61 | 0.61 | 93 | 1001.8 |
| 20260505182518 | 15 | 7 | 3.2 | 6.4 | 0.00 | 0.61 | 0.61 | 93 | 1001.7 |
| 20260505182503 | 15 | 8 | 3.2 | 6.4 | 0.00 | 0.61 | 0.61 | 93 | 1001.9 |
| 20260505182403 | 15 | 12 | 3.2 | 6.4 | 0.00 | 0.61 | 0.61 | 92 | 1001.8 |
| 20260505182218 | 15 | 20 | 3.2 | 6.4 | 0.00 | 0.61 | 0.61 | 92 | 1001.9 |
| 20260505182203 | 15 | 22 | 3.2 | 6.4 | 0.00 | 0.61 | 0.61 | 92 | 1001.8 |
| 20260505182103 | 15 | 26 | 3.2 | 6.4 | 0.00 | 0.61 | 0.61 | 92 | 1001.8 |
| 20260505181903 | 15 | 29 | 3.2 | 6.4 | 0.00 | 0.61 | 0.61 | 92 | 1001.9 |
| 20260505181803 | 15 | 32 | 3.2 | 6.4 | 0.00 | 0.61 | 0.61 | 92 | 1001.9 |
| 20260505181703 | 15 | 34 | 3.2 | 6.4 | 0.00 | 0.61 | 0.61 | 92 | 1001.8 |
| 20260505181603 | 15 | 33 | 3.2 | 6.4 | 0.00 | 0.61 | 0.61 | 92 | 1001.9 |
| 20260505181503 | 15 | 33 | 3.2 | 6.4 | 0.00 | 0.61 | 0.61 | 91 | 1001.8 |
| 20260505181403 | 15 | 32 | 3.2 | 6.4 | 0.00 | 0.61 | 0.61 | 91 | 1001.8 |
| 20260505181303 | 15 | 30 | 3.2 | 6.4 | 0.00 | 0.61 | 0.61 | 91 | 1001.9 |
| 20260505181203 | 15 | 26 | 3.2 | 6.4 | 0.00 | 0.61 | 0.61 | 91 | 1001.9 |
| 20260505181118 | 15 | 24 | 3.2 | 6.4 | 0.00 | 0.61 | 0.61 | 91 | 1001.9 |
| 20260505181104 | 15 | 23 | 3.2 | 6.4 | 0.00 | 0.61 | 0.61 | 91 | 1001.7 |
| 20260505181003 | 15 | 20 | 3.2 | 6.4 | 0.00 | 0.61 | 0.61 | 91 | 1001.9 |
| 20260505180818 | 15 | 18 | 3.2 | 6.4 | 0.00 | 0.61 | 0.61 | 91 | 1002.0 |
| 20260505180803 | 15 | 18 | 3.2 | 6.4 | 0.00 | 0.61 | 0.61 | 91 | 1001.9 |
| 20260505180703 | 15 | 16 | 3.2 | 6.4 | 0.00 | 0.61 | 0.61 | 91 | 1001.9 |
| 20260505180403 | 15 | 19 | 3.2 | 6.4 | 0.00 | 0.61 | 0.61 | 91 | 1001.8 |
| 20260505180303 | 15 | 21 | 3.2 | 6.4 | 0.00 | 0.61 | 0.61 | 91 | 1001.9 |
| 20260505180103 | 15 | 24 | 3.2 | 6.4 | 0.00 | 0.61 | 0.61 | 91 | 1001.9 |
| 20260505180003 | 15 | 25 | 3.2 | 6.4 | 0.00 | 0.61 | 0.61 | 91 | 1001.8 |
| 20260505175903 | 15 | 26 | 3.2 | 6.4 | 0.00 | 0.61 | 0.61 | 90 | 1001.8 |
| 20260505175803 | 15 | 26 | 3.2 | 6.4 | 0.00 | 0.61 | 0.61 | 90 | 1001.7 |
| 20260505175703 | 15 | 28 | 3.2 | 6.4 | 0.00 | 0.61 | 0.61 | 90 | 1001.8 |
| 20260505175506 | 15 | 30 | 3.2 | 6.4 | 0.00 | 0.61 | 0.61 | 91 | 1001.8 |
| 20260505175418 | 16 | 33 | 3.2 | 6.4 | 0.00 | 0.61 | 0.61 | 91 | 1001.8 |
| 20260505175403 | 16 | 32 | 3.2 | 6.4 | 0.00 | 0.61 | 0.61 | 91 | 1001.8 |
| 20260505175305 | 16 | 32 | 3.2 | 6.4 | 0.00 | 0.61 | 0.61 | 91 | 1001.7 |
| 20260505175221 | 16 | 32 | 3.2 | 6.4 | 0.00 | 0.61 | 0.61 | 91 | 1001.7 |
| 20260505175103 | 16 | 30 | 3.2 | 6.4 | 0.00 | 0.61 | 0.61 | 91 | 1001.7 |
| 20260505174903 | 16 | 28 | 3.2 | 6.4 | 0.00 | 0.61 | 0.61 | 91 | 1001.7 |
| 20260505174818 | 16 | 26 | 3.2 | 6.4 | 0.00 | 0.61 | 0.61 | 91 | 1001.7 |
| 20260505174803 | 16 | 25 | 3.2 | 6.4 | 0.00 | 0.61 | 0.61 | 91 | 1001.7 |
| 20260505174703 | 16 | 24 | 3.2 | 6.4 | 0.00 | 0.61 | 0.61 | 91 | 1001.7 |
| 20260505174518 | 16 | 17 | 3.2 | 6.4 | 0.00 | 0.61 | 0.61 | 91 | 1001.8 |
| 20260505174503 | 16 | 17 | 3.2 | 6.4 | 0.00 | 0.61 | 0.61 | 91 | 1001.7 |
| 20260505174403 | 16 | 10 | 3.2 | 6.4 | 0.00 | 0.61 | 0.61 | 91 | 1001.5 |
| 20260505174203 | 16 | 359 | 3.2 | 6.4 | 0.00 | 0.61 | 0.61 | 91 | 1001.7 |
| 20260505174103 | 16 | 356 | 3.2 | 6.4 | 0.00 | 0.61 | 0.61 | 91 | 1001.6 |
| 20260505174003 | 16 | 355 | 3.2 | 6.4 | 0.00 | 0.61 | 0.61 | 91 | 1001.7 |
| 20260505173903 | 16 | 353 | 3.2 | 6.4 | 0.00 | 0.61 | 0.61 | 91 | 1001.5 |
| 20260505173803 | 16 | 353 | 3.2 | 6.4 | 0.00 | 0.61 | 0.61 | 91 | 1001.5 |
| 20260505173719 | 16 | 351 | 3.2 | 6.4 | 0.00 | 0.61 | 0.61 | 91 | 1001.4 |
| 20260505173703 | 16 | 350 | 3.2 | 6.4 | 0.00 | 0.61 | 0.61 | 91 | 1001.5 |
| 20260505173603 | 16 | 350 | 3.2 | 6.4 | 0.00 | 0.61 | 0.61 | 91 | 1001.6 |
| 20260505173418 | 16 | 350 | 3.2 | 6.4 | 0.00 | 0.61 | 0.61 | 91 | 1001.5 |
| 20260505173403 | 16 | 351 | 3.2 | 6.4 | 0.00 | 0.61 | 0.61 | 91 | 1001.5 |
| 20260505173303 | 16 | 355 | 3.2 | 6.4 | 0.00 | 0.61 | 0.61 | 91 | 1001.6 |
| 20260505173103 | 16 | 5 | 3.2 | 6.4 | 0.00 | 0.61 | 0.61 | 91 | 1001.5 |
| 20260505173003 | 16 | 7 | 3.2 | 6.4 | 0.00 | 0.61 | 0.61 | 91 | 1001.5 |
| 20260505172903 | 16 | 8 | 3.2 | 6.4 | 0.00 | 0.61 | 0.61 | 91 | 1001.6 |
| 20260505172803 | 16 | 7 | 3.2 | 6.4 | 0.00 | 0.61 | 0.61 | 91 | 1001.3 |
| 20260505172703 | 16 | 9 | 3.2 | 4.8 | 0.00 | 0.61 | 0.61 | 91 | 1001.3 |
| 20260505172603 | 16 | 13 | 3.2 | 4.8 | 0.00 | 0.61 | 0.61 | 90 | 1001.5 |
| 20260505172517 | 16 | 15 | 3.2 | 4.8 | 0.00 | 0.61 | 0.61 | 90 | 1001.5 |
| 20260505172503 | 16 | 17 | 3.2 | 4.8 | 0.00 | 0.61 | 0.61 | 90 | 1001.7 |
| 20260505172403 | 16 | 21 | 3.2 | 4.8 | 0.00 | 0.61 | 0.61 | 90 | 1001.6 |
| 20260505172203 | 16 | 27 | 3.2 | 4.8 | 0.00 | 0.61 | 0.61 | 90 | 1001.7 |
| 20260505172103 | 16 | 25 | 3.2 | 4.8 | 0.00 | 0.61 | 0.61 | 90 | 1001.7 |
| 20260505172003 | 16 | 25 | 1.6 | 6.4 | 0.00 | 0.61 | 0.61 | 90 | 1001.7 |
| 20260505171903 | 16 | 22 | 3.2 | 6.4 | 0.00 | 0.61 | 0.61 | 89 | 1001.7 |
| 20260505171803 | 16 | 28 | 3.2 | 6.4 | 0.00 | 0.61 | 0.61 | 89 | 1001.7 |
| 20260505171718 | 16 | 31 | 3.2 | 6.4 | 0.00 | 0.61 | 0.61 | 89 | 1001.7 |
| 20260505171703 | 16 | 31 | 3.2 | 6.4 | 0.00 | 0.61 | 0.61 | 89 | 1001.7 |
| 20260505171603 | 16 | 31 | 3.2 | 6.4 | 0.00 | 0.61 | 0.61 | 89 | 1001.6 |
| 20260505171403 | 16 | 26 | 3.2 | 8.0 | 0.00 | 0.61 | 0.61 | 89 | 1001.4 |
| 20260505171317 | 16 | 26 | 3.2 | 8.0 | 0.00 | 0.61 | 0.61 | 89 | 1001.4 |
| 20260505171303 | 16 | 27 | 3.2 | 8.0 | 0.00 | 0.61 | 0.61 | 89 | 1001.7 |
| 20260505171203 | 16 | 24 | 3.2 | 8.0 | 0.00 | 0.61 | 0.61 | 89 | 1001.5 |
| 20260505171003 | 16 | 24 | 3.2 | 8.0 | 0.00 | 0.61 | 0.61 | 89 | 1001.5 |
| 20260505170903 | 16 | 28 | 3.2 | 8.0 | 0.00 | 0.61 | 0.61 | 89 | 1001.5 |
| 20260505170818 | 16 | 29 | 3.2 | 8.0 | 0.00 | 0.61 | 0.61 | 89 | 1001.5 |
| 20260505170803 | 16 | 29 | 3.2 | 8.0 | 0.00 | 0.61 | 0.61 | 89 | 1001.6 |
| 20260505170503 | 16 | 35 | 3.2 | 8.0 | 0.00 | 0.61 | 0.61 | 89 | 1001.6 |
| 20260505170416 | 16 | 37 | 3.2 | 8.0 | 0.00 | 0.61 | 0.61 | 89 | 1001.5 |
| 20260505170403 | 16 | 36 | 3.2 | 8.0 | 0.00 | 0.61 | 0.61 | 89 | 1001.5 |
| 20260505170303 | 16 | 38 | 3.2 | 8.0 | 0.00 | 0.61 | 0.61 | 89 | 1001.4 |
| 20260505170103 | 16 | 41 | 3.2 | 9.7 | 0.00 | 0.61 | 0.61 | 89 | 1001.5 |
| 20260505170003 | 16 | 41 | 3.2 | 9.7 | 0.00 | 0.61 | 0.61 | 89 | 1001.5 |
| 20260505165903 | 16 | 38 | 3.2 | 9.7 | 0.00 | 0.61 | 0.61 | 89 | 1001.6 |
| 20260505165803 | 16 | 36 | 4.8 | 9.7 | 0.00 | 0.61 | 0.61 | 89 | 1001.6 |